| time (UTC) | temp F | wind direction | speed MPH | gust MPH | rain 1hr in | rain 24hr in | rain mn in | humidity % | barometer mb |
| 20260904161223 | 84 | 264 | 4.0 | 6.0 | 0.00 | 0.01 | 0.01 | 53 | 1013.5 |
| 20260904161119 | 84 | 281 | 6.0 | 7.0 | 0.00 | 0.01 | 0.01 | 53 | 1013.2 |
| 20260904161031 | 84 | 234 | 3.0 | 4.0 | 0.00 | 0.01 | 0.01 | 54 | 1013.4 |
| 20260904160926 | 84 | 245 | 4.0 | 7.0 | 0.00 | 0.01 | 0.01 | 54 | 1013.7 |
| 20260904160822 | 84 | 267 | 5.0 | 8.0 | 0.00 | 0.01 | 0.01 | 54 | 1013.5 |
| 20260904160718 | 84 | 283 | 3.0 | 8.0 | 0.00 | 0.01 | 0.01 | 55 | 1013.5 |
| 20260904160629 | 84 | 288 | 4.0 | 8.0 | 0.00 | 0.01 | 0.01 | 54 | 1013.5 |
| 20260904160524 | 84 | 252 | 3.0 | 3.0 | 0.00 | 0.01 | 0.01 | 55 | 1013.3 |
| 20260904160419 | 84 | 286 | 4.0 | 8.0 | 0.00 | 0.01 | 0.01 | 54 | 1013.4 |
| 20260904160351 | 84 | 269 | 4.0 | 8.0 | 0.00 | 0.01 | 0.01 | 53 | 1013.4 |
| 20260904160246 | 84 | 308 | 5.0 | 7.0 | 0.00 | 0.01 | 0.01 | 53 | 1013.5 |
| 20260904160122 | 84 | 265 | 5.0 | 8.0 | 0.00 | 0.01 | 0.01 | 53 | 1013.5 |
| 20260904160038 | 84 | 295 | 7.0 | 15.0 | 0.00 | 0.01 | 0.01 | 52 | 1013.3 |
| 20260904155949 | 84 | 242 | 5.0 | 7.0 | 0.00 | 0.01 | 0.01 | 53 | 1013.6 |
| 20260904155824 | 84 | 256 | 3.0 | 6.0 | 0.00 | 0.01 | 0.01 | 53 | 1013.4 |
| 20260904155720 | 84 | 275 | 5.0 | 8.0 | 0.00 | 0.01 | 0.01 | 53 | 1013.4 |
| 20260904155636 | 84 | 314 | 5.0 | 11.0 | 0.00 | 0.01 | 0.01 | 54 | 1013.4 |
| 20260904155548 | 84 | 266 | 3.0 | 4.0 | 0.00 | 0.01 | 0.01 | 55 | 1013.5 |
| 20260904155514 | 84 | 316 | 5.0 | 8.0 | 0.00 | 0.01 | 0.01 | 54 | 1013.6 |
| 20260904155326 | 84 | 238 | 4.0 | 9.0 | 0.00 | 0.01 | 0.01 | 54 | 1013.7 |
| 20260904155221 | 84 | 302 | 5.0 | 9.0 | 0.00 | 0.01 | 0.01 | 54 | 1013.7 |
| 20260904155117 | 84 | 301 | 2.0 | 4.0 | 0.00 | 0.01 | 0.01 | 55 | 1013.5 |
| 20260904155028 | 84 | 313 | 4.0 | 6.0 | 0.00 | 0.01 | 0.01 | 54 | 1013.6 |
| 20260904154924 | 84 | 292 | 5.0 | 8.0 | 0.00 | 0.01 | 0.01 | 55 | 1013.6 |
| 20260904154820 | 84 | 297 | 6.0 | 10.0 | 0.00 | 0.01 | 0.01 | 54 | 1013.7 |
| 20260904154735 | 84 | 312 | 6.0 | 8.0 | 0.00 | 0.01 | 0.01 | 54 | 1013.6 |
| 20260904154647 | 84 | 325 | 6.0 | 10.0 | 0.00 | 0.01 | 0.01 | 54 | 1013.6 |
| 20260904154522 | 84 | 332 | 3.0 | 9.0 | 0.00 | 0.01 | 0.01 | 54 | 1013.6 |
| 20260904154418 | 84 | 315 | 1.0 | 2.0 | 0.00 | 0.01 | 0.01 | 54 | 1013.6 |
| 20260904154330 | 84 | 310 | 2.0 | 6.0 | 0.00 | 0.01 | 0.01 | 54 | 1013.6 |
| 20260904154225 | 84 | 273 | 4.0 | 7.0 | 0.00 | 0.01 | 0.01 | 54 | 1013.7 |
| 20260904154121 | 84 | 289 | 4.0 | 8.0 | 0.00 | 0.01 | 0.01 | 53 | 1013.6 |
| 20260904154016 | 84 | 310 | 4.0 | 9.0 | 0.00 | 0.01 | 0.01 | 53 | 1013.6 |
| 20260904153928 | 84 | 317 | 3.0 | 9.0 | 0.00 | 0.01 | 0.01 | 53 | 1013.6 |
| 20260904153824 | 84 | 328 | 3.0 | 7.0 | 0.00 | 0.01 | 0.01 | 53 | 1013.7 |
| 20260904153719 | 84 | 292 | 5.0 | 7.0 | 0.00 | 0.01 | 0.01 | 53 | 1013.8 |
| 20260904153631 | 84 | 257 | 4.0 | 8.0 | 0.00 | 0.01 | 0.01 | 53 | 1013.7 |
| 20260904153527 | 85 | 287 | 6.0 | 10.0 | 0.00 | 0.01 | 0.01 | 53 | 1013.8 |
| 20260904153422 | 85 | 260 | 6.0 | 14.0 | 0.00 | 0.01 | 0.01 | 55 | 1013.7 |
| 20260904153317 | 85 | 312 | 7.0 | 9.0 | 0.00 | 0.01 | 0.01 | 55 | 1013.8 |
| 20260904153229 | 85 | 293 | 2.0 | 8.0 | 0.00 | 0.01 | 0.01 | 56 | 1013.7 |
| 20260904153125 | 85 | 278 | 1.0 | 3.0 | 0.00 | 0.01 | 0.01 | 56 | 1013.6 |
| 20260904153020 | 85 | 235 | 2.0 | 3.0 | 0.00 | 0.01 | 0.01 | 56 | 1013.7 |
| 20260904152916 | 85 | 254 | 3.0 | 4.0 | 0.00 | 0.01 | 0.01 | 54 | 1013.6 |
| 20260904152827 | 85 | 257 | 2.0 | 4.0 | 0.00 | 0.01 | 0.01 | 54 | 1013.7 |
| 20260904152723 | 85 | 317 | 4.0 | 10.0 | 0.00 | 0.01 | 0.01 | 53 | 1013.8 |
| 20260904152658 | 86 | 326 | 6.0 | 9.0 | 0.00 | 0.01 | 0.01 | 53 | 1013.8 |
| 20260904152530 | 86 | 284 | 4.0 | 7.0 | 0.00 | 0.01 | 0.01 | 54 | 1013.8 |
| 20260904152505 | 86 | 323 | 3.0 | 6.0 | 0.00 | 0.01 | 0.01 | 54 | 1013.9 |
| 20260904152321 | 86 | 236 | 3.0 | 4.0 | 0.00 | 0.01 | 0.01 | 54 | 1013.9 |
| 20260904152217 | 86 | 246 | 2.0 | 4.0 | 0.00 | 0.01 | 0.01 | 54 | 1013.9 |
| 20260904152128 | 86 | 232 | 1.0 | 1.0 | 0.00 | 0.01 | 0.01 | 54 | 1013.7 |
| 20260904152024 | 86 | 230 | 1.0 | 2.0 | 0.00 | 0.01 | 0.01 | 52 | 1013.7 |
| 20260904151919 | 86 | 236 | 4.0 | 7.0 | 0.00 | 0.01 | 0.01 | 51 | 1013.8 |
| 20260904151831 | 87 | 270 | 3.0 | 4.0 | 0.00 | 0.01 | 0.01 | 51 | 1013.7 |
| 20260904151727 | 87 | 285 | 6.0 | 9.0 | 0.00 | 0.01 | 0.01 | 50 | 1014.0 |
| 20260904151622 | 87 | 309 | 7.0 | 11.0 | 0.00 | 0.01 | 0.01 | 51 | 1014.0 |
| 20260904151518 | 88 | 322 | 4.0 | 8.0 | 0.00 | 0.01 | 0.01 | 52 | 1014.0 |
| 20260904151429 | 88 | 299 | 4.0 | 9.0 | 0.00 | 0.01 | 0.01 | 51 | 1014.0 |
| 20260904151325 | 88 | 283 | 3.0 | 7.0 | 0.00 | 0.01 | 0.01 | 52 | 1013.9 |
| 20260904151221 | 88 | 355 | 3.0 | 8.0 | 0.00 | 0.01 | 0.01 | 51 | 1013.9 |
| 20260904151116 | 88 | 299 | 4.0 | 8.0 | 0.00 | 0.01 | 0.01 | 53 | 1014.0 |
| 20260904151027 | 87 | 38 | 2.0 | 6.0 | 0.00 | 0.01 | 0.01 | 51 | 1013.9 |
| 20260904150924 | 87 | 313 | 3.0 | 4.0 | 0.00 | 0.01 | 0.01 | 52 | 1013.8 |
| 20260904150839 | 87 | 296 | 1.0 | 3.0 | 0.00 | 0.01 | 0.01 | 52 | 1013.9 |
| 20260904150750 | 87 | 272 | 3.0 | 6.0 | 0.00 | 0.01 | 0.01 | 53 | 1013.9 |
| 20260904150626 | 87 | 345 | 3.0 | 7.0 | 0.00 | 0.01 | 0.01 | 53 | 1014.0 |
| 20260904150521 | 87 | 344 | 3.0 | 3.0 | 0.00 | 0.01 | 0.01 | 53 | 1014.1 |
| 20260904150437 | 87 | 329 | 2.0 | 6.0 | 0.00 | 0.01 | 0.01 | 54 | 1013.9 |
| 20260904150329 | 87 | 303 | 2.0 | 6.0 | 0.00 | 0.01 | 0.01 | 55 | 1014.0 |
| 20260904150224 | 86 | 1 | 2.0 | 4.0 | 0.00 | 0.01 | 0.01 | 54 | 1014.0 |
| 20260904150120 | 86 | 329 | 3.0 | 6.0 | 0.00 | 0.01 | 0.01 | 54 | 1014.1 |
| 20260904150015 | 86 | 333 | 4.0 | 6.0 | 0.00 | 0.01 | 0.01 | 54 | 1014.0 |
| 20260904145927 | 86 | 276 | 2.0 | 6.0 | 0.00 | 0.01 | 0.01 | 55 | 1013.9 |
| 20260904145823 | 86 | 290 | 1.0 | 2.0 | 0.00 | 0.01 | 0.01 | 54 | 1014.1 |
| 20260904145738 | 86 | 228 | 3.0 | 4.0 | 0.00 | 0.01 | 0.01 | 54 | 1013.9 |
| 20260904145650 | 86 | 295 | 5.0 | 8.0 | 0.00 | 0.01 | 0.01 | 55 | 1013.9 |
| 20260904145525 | 86 | 226 | 1.0 | 1.0 | 0.00 | 0.01 | 0.01 | 56 | 1013.9 |
| 20260904145441 | 85 | 266 | 0.0 | 1.0 | 0.00 | 0.01 | 0.01 | 55 | 1013.9 |
| 20260904145316 | 85 | 253 | 2.0 | 6.0 | 0.00 | 0.01 | 0.01 | 54 | 1014.0 |
| 20260904145228 | 85 | 253 | 3.0 | 4.0 | 0.00 | 0.01 | 0.01 | 55 | 1013.9 |
| 20260904145124 | 85 | 311 | 4.0 | 6.0 | 0.00 | 0.01 | 0.01 | 54 | 1014.0 |
| 20260904145020 | 85 | 310 | 7.0 | 9.0 | 0.00 | 0.01 | 0.01 | 55 | 1013.9 |
| 20260904144931 | 85 | 357 | 1.0 | 3.0 | 0.00 | 0.01 | 0.01 | 56 | 1013.7 |
| 20260904144827 | 85 | 335 | 2.0 | 4.0 | 0.00 | 0.01 | 0.01 | 56 | 1014.0 |
| 20260904144722 | 85 | 356 | 5.0 | 11.0 | 0.00 | 0.01 | 0.01 | 55 | 1013.9 |
| 20260904144618 | 86 | 291 | 5.0 | 10.0 | 0.00 | 0.01 | 0.01 | 54 | 1013.8 |
| 20260904144531 | 86 | 306 | 5.0 | 10.0 | 0.00 | 0.01 | 0.01 | 54 | 1013.8 |
| 20260904144425 | 86 | 303 | 6.0 | 9.0 | 0.00 | 0.01 | 0.01 | 54 | 1013.8 |
| 20260904144320 | 86 | 309 | 6.0 | 10.0 | 0.00 | 0.01 | 0.01 | 55 | 1013.8 |
| 20260904144231 | 86 | 315 | 3.0 | 13.0 | 0.00 | 0.01 | 0.01 | 55 | 1013.7 |
| 20260904144126 | 86 | 297 | 1.0 | 2.0 | 0.00 | 0.01 | 0.01 | 54 | 1013.8 |
| 20260904144022 | 86 | 298 | 3.0 | 4.0 | 0.00 | 0.01 | 0.01 | 54 | 1013.7 |
| 20260904143918 | 86 | 322 | 2.0 | 4.0 | 0.00 | 0.01 | 0.01 | 53 | 1013.7 |
| 20260904143829 | 86 | 291 | 3.0 | 4.0 | 0.00 | 0.01 | 0.01 | 53 | 1013.7 |
| 20260904143724 | 86 | 291 | 2.0 | 3.0 | 0.00 | 0.01 | 0.01 | 53 | 1013.8 |
| 20260904143620 | 87 | 295 | 6.0 | 10.0 | 0.00 | 0.01 | 0.01 | 53 | 1013.7 |
| 20260904143516 | 87 | 321 | 2.0 | 4.0 | 0.00 | 0.01 | 0.01 | 53 | 1013.7 |
| 20260904143428 | 87 | 325 | 4.0 | 9.0 | 0.00 | 0.01 | 0.01 | 53 | 1013.7 |
| 20260904143323 | 87 | 250 | 8.0 | 15.0 | 0.00 | 0.01 | 0.01 | 54 | 1013.8 |
| 20260904143218 | 88 | 267 | 4.0 | 6.0 | 0.00 | 0.01 | 0.01 | 55 | 1013.8 |
| 20260904143130 | 88 | 284 | 3.0 | 7.0 | 0.00 | 0.01 | 0.01 | 55 | 1013.8 |
| 20260904143046 | 88 | 299 | 3.0 | 7.0 | 0.00 | 0.01 | 0.01 | 53 | 1013.9 |
| 20260904142941 | 88 | 295 | 5.0 | 9.0 | 0.00 | 0.01 | 0.01 | 54 | 1013.8 |
| 20260904142817 | 88 | 294 | 5.0 | 8.0 | 0.00 | 0.01 | 0.01 | 53 | 1013.8 |
| 20260904142728 | 88 | 309 | 4.0 | 9.0 | 0.00 | 0.01 | 0.01 | 52 | 1013.8 |
| 20260904142624 | 89 | 300 | 4.0 | 7.0 | 0.00 | 0.01 | 0.01 | 52 | 1013.7 |
| 20260904142519 | 89 | 290 | 5.0 | 8.0 | 0.00 | 0.01 | 0.01 | 53 | 1013.6 |
| 20260904142415 | 89 | 290 | 3.0 | 4.0 | 0.00 | 0.01 | 0.01 | 54 | 1013.8 |
| 20260904142327 | 89 | 286 | 4.0 | 8.0 | 0.00 | 0.01 | 0.01 | 55 | 1014.0 |
| 20260904142222 | 89 | 296 | 3.0 | 3.0 | 0.00 | 0.01 | 0.01 | 54 | 1014.0 |
| 20260904142118 | 89 | 310 | 3.0 | 6.0 | 0.00 | 0.01 | 0.01 | 55 | 1013.7 |
| 20260904142050 | 89 | 270 | 2.0 | 6.0 | 0.00 | 0.01 | 0.01 | 54 | 1013.8 |
| 20260904141925 | 89 | 305 | 4.0 | 8.0 | 0.00 | 0.01 | 0.01 | 56 | 1013.8 |
| 20260904141821 | 89 | 335 | 2.0 | 4.0 | 0.00 | 0.01 | 0.01 | 55 | 1013.7 |
| 20260904141716 | 89 | 327 | 3.0 | 4.0 | 0.00 | 0.01 | 0.01 | 54 | 1013.8 |
| 20260904141628 | 89 | 292 | 1.0 | 3.0 | 0.00 | 0.01 | 0.01 | 54 | 1014.1 |
| 20260904141544 | 89 | 321 | 3.0 | 7.0 | 0.00 | 0.01 | 0.01 | 54 | 1013.8 |
| 20260904141419 | 89 | 287 | 2.0 | 4.0 | 0.00 | 0.01 | 0.01 | 54 | 1013.8 |
| 20260904141331 | 88 | 284 | 2.0 | 4.0 | 0.00 | 0.01 | 0.01 | 55 | 1013.6 |
| 20260904141226 | 88 | 307 | 5.0 | 7.0 | 0.00 | 0.01 | 0.01 | 54 | 1013.7 |
| 20260904141122 | 88 | 301 | 4.0 | 8.0 | 0.00 | 0.01 | 0.01 | 55 | 1013.8 |
| 20260904141018 | 88 | 246 | 2.0 | 6.0 | 0.00 | 0.01 | 0.01 | 55 | 1013.9 |
| 20260904140929 | 88 | 304 | 3.0 | 6.0 | 0.00 | 0.01 | 0.01 | 55 | 1013.8 |
| 20260904140825 | 88 | 288 | 2.0 | 4.0 | 0.00 | 0.01 | 0.01 | 58 | 1013.8 |
| 20260904140720 | 88 | 240 | 0.0 | 1.0 | 0.00 | 0.01 | 0.01 | 56 | 1013.5 |
| 20260904140615 | 88 | 238 | 2.0 | 6.0 | 0.00 | 0.01 | 0.01 | 55 | 1013.6 |
| 20260904140527 | 88 | 291 | 3.0 | 7.0 | 0.00 | 0.01 | 0.01 | 55 | 1013.5 |
| 20260904140422 | 88 | 250 | 4.0 | 8.0 | 0.00 | 0.01 | 0.01 | 56 | 1013.6 |
| 20260904140338 | 88 | 285 | 3.0 | 6.0 | 0.00 | 0.01 | 0.01 | 56 | 1013.7 |
| 20260904140230 | 88 | 275 | 2.0 | 3.0 | 0.00 | 0.01 | 0.01 | 55 | 1013.7 |
| 20260904140125 | 88 | 356 | 3.0 | 7.0 | 0.00 | 0.01 | 0.01 | 55 | 1013.6 |
| 20260904140021 | 88 | 355 | 2.0 | 4.0 | 0.00 | 0.01 | 0.01 | 55 | 1013.5 |
| 20260904135916 | 88 | 318 | 3.0 | 10.0 | 0.00 | 0.01 | 0.01 | 55 | 1013.5 |
| 20260904135828 | 88 | 293 | 4.0 | 11.0 | 0.00 | 0.01 | 0.01 | 56 | 1013.6 |
| 20260904135743 | 88 | 305 | 3.0 | 6.0 | 0.00 | 0.01 | 0.01 | 57 | 1013.6 |
| 20260904135619 | 88 | 246 | 3.0 | 3.0 | 0.00 | 0.01 | 0.01 | 57 | 1013.6 |
| 20260904135550 | 88 | 296 | 4.0 | 7.0 | 0.00 | 0.01 | 0.01 | 56 | 1013.5 |
| 20260904135426 | 88 | 258 | 3.0 | 6.0 | 0.00 | 0.01 | 0.01 | 55 | 1013.7 |
| 20260904135321 | 88 | 241 | 5.0 | 8.0 | 0.00 | 0.01 | 0.01 | 55 | 1013.7 |
| 20260904135217 | 88 | 271 | 5.0 | 9.0 | 0.00 | 0.01 | 0.01 | 57 | 1013.5 |
| 20260904135129 | 88 | 303 | 5.0 | 7.0 | 0.00 | 0.01 | 0.01 | 56 | 1013.6 |
| 20260904135024 | 88 | 284 | 2.0 | 3.0 | 0.00 | 0.01 | 0.01 | 58 | 1013.5 |
| 20260904134920 | 88 | 300 | 1.0 | 2.0 | 0.00 | 0.01 | 0.01 | 59 | 1013.5 |
| 20260904134815 | 88 | 287 | 2.0 | 3.0 | 0.00 | 0.01 | 0.01 | 59 | 1013.7 |
| 20260904134727 | 88 | 238 | 4.0 | 7.0 | 0.00 | 0.01 | 0.01 | 57 | 1013.6 |
| 20260904134623 | 88 | 236 | 3.0 | 8.0 | 0.00 | 0.01 | 0.01 | 58 | 1013.6 |
| 20260904134518 | 88 | 234 | 2.0 | 2.0 | 0.00 | 0.01 | 0.01 | 58 | 1013.4 |
| 20260904134429 | 88 | 240 | 2.0 | 4.0 | 0.00 | 0.01 | 0.01 | 59 | 1013.6 |
| 20260904134325 | 87 | 243 | 2.0 | 2.0 | 0.00 | 0.01 | 0.01 | 60 | 1013.5 |
| 20260904134220 | 87 | 265 | 2.0 | 3.0 | 0.00 | 0.01 | 0.01 | 59 | 1013.6 |
| 20260904134116 | 87 | 286 | 2.0 | 3.0 | 0.00 | 0.01 | 0.01 | 60 | 1013.3 |
| 20260904134028 | 87 | 304 | 4.0 | 6.0 | 0.00 | 0.01 | 0.01 | 59 | 1013.5 |
| 20260904133923 | 87 | 278 | 4.0 | 11.0 | 0.00 | 0.01 | 0.01 | 60 | 1013.6 |
| 20260904133819 | 87 | 267 | 4.0 | 7.0 | 0.00 | 0.01 | 0.01 | 58 | 1013.6 |
| 20260904133730 | 87 | 259 | 3.0 | 4.0 | 0.00 | 0.01 | 0.01 | 58 | 1013.5 |
| 20260904133626 | 87 | 247 | 5.0 | 9.0 | 0.00 | 0.01 | 0.01 | 58 | 1013.5 |
| 20260904133601 | 87 | 239 | 3.0 | 4.0 | 0.00 | 0.01 | 0.01 | 61 | 1013.5 |
| 20260904133417 | 87 | 294 | 3.0 | 4.0 | 0.00 | 0.01 | 0.01 | 60 | 1013.3 |
| 20260904133328 | 87 | 309 | 4.0 | 8.0 | 0.00 | 0.01 | 0.01 | 59 | 1013.6 |
| 20260904133224 | 87 | 300 | 4.0 | 6.0 | 0.00 | 0.01 | 0.01 | 61 | 1013.6 |
| 20260904133119 | 87 | 332 | 2.0 | 4.0 | 0.00 | 0.01 | 0.01 | 62 | 1013.7 |
| 20260904133051 | 87 | 311 | 2.0 | 2.0 | 0.00 | 0.01 | 0.01 | 62 | 1013.3 |
| 20260904132926 | 86 | 281 | 2.0 | 2.0 | 0.00 | 0.01 | 0.01 | 62 | 1013.5 |
| 20260904132842 | 86 | 300 | 1.0 | 2.0 | 0.00 | 0.01 | 0.01 | 63 | 1013.5 |
| 20260904132757 | 86 | 337 | 4.0 | 6.0 | 0.00 | 0.01 | 0.01 | 63 | 1013.5 |
| 20260904132649 | 86 | 269 | 2.0 | 4.0 | 0.00 | 0.01 | 0.01 | 64 | 1013.4 |
| 20260904132524 | 86 | 280 | 2.0 | 4.0 | 0.00 | 0.01 | 0.01 | 67 | 1013.5 |
| 20260904132420 | 85 | 315 | 1.0 | 2.0 | 0.00 | 0.01 | 0.01 | 67 | 1013.5 |
| 20260904132336 | 85 | 290 | 0.0 | 1.0 | 0.00 | 0.01 | 0.01 | 66 | 1013.4 |
| 20260904132227 | 85 | 293 | 1.0 | 2.0 | 0.00 | 0.01 | 0.01 | 67 | 1013.4 |
| 20260904132122 | 84 | 313 | 1.0 | 2.0 | 0.00 | 0.01 | 0.01 | 68 | 1013.4 |
| 20260904132018 | 84 | 250 | 3.0 | 4.0 | 0.00 | 0.01 | 0.01 | 64 | 1013.4 |
| 20260904131950 | 84 | 244 | 4.0 | 4.0 | 0.00 | 0.01 | 0.01 | 65 | 1013.4 |
| 20260904131845 | 84 | 258 | 2.0 | 4.0 | 0.00 | 0.01 | 0.01 | 64 | 1013.4 |
| 20260904131721 | 85 | 243 | 4.0 | 8.0 | 0.00 | 0.01 | 0.01 | 64 | 1013.4 |
| 20260904131616 | 85 | 273 | 3.0 | 6.0 | 0.00 | 0.01 | 0.01 | 64 | 1013.5 |
| 20260904131528 | 85 | 276 | 5.0 | 8.0 | 0.00 | 0.01 | 0.01 | 64 | 1013.4 |
| 20260904131424 | 85 | 238 | 5.0 | 9.0 | 0.00 | 0.01 | 0.01 | 64 | 1013.5 |
| 20260904131319 | 85 | 296 | 4.0 | 4.0 | 0.00 | 0.01 | 0.01 | 65 | 1013.5 |
| 20260904131231 | 85 | 289 | 4.0 | 6.0 | 0.00 | 0.01 | 0.01 | 64 | 1013.5 |
| 20260904131126 | 85 | 265 | 2.0 | 6.0 | 0.00 | 0.01 | 0.01 | 65 | 1013.5 |
| 20260904131022 | 85 | 256 | 4.0 | 6.0 | 0.00 | 0.01 | 0.01 | 65 | 1013.6 |
| 20260904130917 | 85 | 299 | 2.0 | 3.0 | 0.00 | 0.01 | 0.01 | 65 | 1013.6 |
| 20260904130829 | 85 | 298 | 2.0 | 3.0 | 0.00 | 0.01 | 0.01 | 65 | 1013.5 |
| 20260904130725 | 85 | 282 | 3.0 | 3.0 | 0.00 | 0.01 | 0.01 | 65 | 1013.6 |
| 20260904130620 | 85 | 247 | 4.0 | 7.0 | 0.00 | 0.01 | 0.01 | 66 | 1013.6 |
| 20260904130516 | 85 | 302 | 3.0 | 4.0 | 0.00 | 0.01 | 0.01 | 65 | 1013.6 |
| 20260904130428 | 85 | 302 | 5.0 | 7.0 | 0.00 | 0.01 | 0.01 | 67 | 1013.6 |
| 20260904130343 | 85 | 331 | 2.0 | 4.0 | 0.00 | 0.01 | 0.01 | 67 | 1013.7 |
| 20260904130259 | 85 | 307 | 4.0 | 6.0 | 0.00 | 0.01 | 0.01 | 68 | 1013.7 |
| 20260904130130 | 85 | 314 | 3.0 | 4.0 | 0.00 | 0.01 | 0.01 | 68 | 1013.8 |
| 20260904130026 | 85 | 321 | 3.0 | 4.0 | 0.00 | 0.01 | 0.01 | 67 | 1013.7 |
| 20260904125921 | 85 | 323 | 4.0 | 7.0 | 0.00 | 0.01 | 0.01 | 69 | 1013.7 |
| 20260904125817 | 84 | 301 | 1.0 | 2.0 | 0.00 | 0.01 | 0.01 | 71 | 1013.7 |
| 20260904125728 | 84 | 276 | 1.0 | 2.0 | 0.00 | 0.01 | 0.01 | 70 | 1013.8 |
| 20260904125624 | 84 | 238 | 1.0 | 3.0 | 0.00 | 0.01 | 0.01 | 68 | 1013.8 |
| 20260904125520 | 84 | 238 | 3.0 | 4.0 | 0.00 | 0.01 | 0.01 | 68 | 1013.8 |
| 20260904125415 | 84 | 295 | 2.0 | 3.0 | 0.00 | 0.01 | 0.01 | 68 | 1013.9 |
| 20260904125327 | 84 | 291 | 2.0 | 3.0 | 0.00 | 0.01 | 0.01 | 70 | 1013.7 |
| 20260904125222 | 84 | 315 | 3.0 | 4.0 | 0.00 | 0.01 | 0.01 | 71 | 1013.7 |
| 20260904125118 | 83 | 325 | 1.0 | 3.0 | 0.00 | 0.01 | 0.01 | 70 | 1013.6 |
| 20260904125029 | 83 | 225 | 2.0 | 2.0 | 0.00 | 0.01 | 0.01 | 71 | 1013.8 |
| 20260904124925 | 83 | 233 | 1.0 | 1.0 | 0.00 | 0.01 | 0.01 | 72 | 1013.6 |
| 20260904124821 | 83 | 235 | 1.0 | 4.0 | 0.00 | 0.01 | 0.01 | 74 | 1013.6 |
| 20260904124716 | 83 | 243 | 1.0 | 4.0 | 0.00 | 0.01 | 0.01 | 73 | 1013.7 |
| 20260904124628 | 83 | 301 | 4.0 | 7.0 | 0.00 | 0.01 | 0.01 | 72 | 1013.8 |
| 20260904124523 | 83 | 274 | 2.0 | 3.0 | 0.00 | 0.01 | 0.01 | 73 | 1013.8 |
| 20260904124439 | 82 | 323 | 3.0 | 4.0 | 0.00 | 0.01 | 0.01 | 72 | 1013.9 |
| 20260904124331 | 82 | 240 | 4.0 | 8.0 | 0.00 | 0.01 | 0.01 | 73 | 1013.8 |
| 20260904124226 | 82 | 300 | 0.0 | 1.0 | 0.00 | 0.01 | 0.01 | 74 | 1013.6 |
| 20260904124122 | 82 | 306 | 2.0 | 4.0 | 0.00 | 0.01 | 0.01 | 74 | 1013.7 |
| 20260904124017 | 82 | 306 | 3.0 | 6.0 | 0.00 | 0.01 | 0.01 | 73 | 1013.7 |
| 20260904123929 | 82 | 283 | 3.0 | 7.0 | 0.00 | 0.01 | 0.01 | 73 | 1013.7 |
| 20260904123845 | 82 | 238 | 3.0 | 6.0 | 0.00 | 0.01 | 0.01 | 73 | 1013.7 |
| 20260904123720 | 82 | 257 | 2.0 | 2.0 | 0.00 | 0.01 | 0.01 | 75 | 1013.7 |
| 20260904123616 | 81 | 269 | 1.0 | 1.0 | 0.00 | 0.01 | 0.01 | 77 | 1013.5 |
| 20260904123527 | 81 | 269 | 1.0 | 2.0 | 0.00 | 0.01 | 0.01 | 77 | 1013.7 |
| 20260904123443 | 81 | 298 | 1.0 | 2.0 | 0.00 | 0.01 | 0.01 | 76 | 1013.6 |
| 20260904123339 | 81 | 313 | 4.0 | 4.0 | 0.00 | 0.01 | 0.01 | 75 | 1013.6 |
| 20260904123250 | 81 | 275 | 3.0 | 4.0 | 0.00 | 0.01 | 0.01 | 74 | 1013.5 |
| 20260904123125 | 81 | 240 | 6.0 | 7.0 | 0.00 | 0.01 | 0.01 | 73 | 1013.8 |
| 20260904123021 | 81 | 279 | 4.0 | 7.0 | 0.00 | 0.01 | 0.01 | 74 | 1013.6 |
| 20260904122917 | 81 | 305 | 6.0 | 8.0 | 0.00 | 0.01 | 0.01 | 76 | 1013.6 |
| 20260904122828 | 81 | 305 | 2.0 | 3.0 | 0.00 | 0.01 | 0.01 | 75 | 1013.7 |
| 20260904122724 | 81 | 320 | 2.0 | 3.0 | 0.00 | 0.01 | 0.01 | 75 | 1013.6 |
| 20260904122620 | 80 | 270 | 3.0 | 3.0 | 0.00 | 0.01 | 0.01 | 76 | 1013.6 |
| 20260904122535 | 80 | 301 | 5.0 | 8.0 | 0.00 | 0.01 | 0.01 | 77 | 1013.5 |
| 20260904122427 | 80 | 303 | 3.0 | 4.0 | 0.00 | 0.01 | 0.01 | 77 | 1013.6 |
| 20260904122322 | 80 | 266 | 2.0 | 2.0 | 0.00 | 0.01 | 0.01 | 77 | 1013.5 |
| 20260904122218 | 80 | 261 | 2.0 | 2.0 | 0.00 | 0.01 | 0.01 | 78 | 1013.4 |
| 20260904122129 | 80 | 290 | 2.0 | 2.0 | 0.00 | 0.01 | 0.01 | 79 | 1013.4 |
| 20260904122045 | 79 | 312 | 2.0 | 2.0 | 0.00 | 0.01 | 0.01 | 79 | 1013.4 |
| 20260904121921 | 79 | 320 | 3.0 | 3.0 | 0.00 | 0.01 | 0.01 | 79 | 1013.3 |
| 20260904121816 | 79 | 314 | 2.0 | 2.0 | 0.00 | 0.01 | 0.01 | 79 | 1013.4 |
| 20260904121728 | 79 | 235 | 1.0 | 2.0 | 0.00 | 0.01 | 0.01 | 80 | 1013.3 |
| 20260904121623 | 79 | 238 | 2.0 | 2.0 | 0.00 | 0.01 | 0.01 | 79 | 1013.3 |
| 20260904121519 | 79 | 247 | 4.0 | 8.0 | 0.00 | 0.01 | 0.01 | 79 | 1013.5 |
| 20260904121430 | 78 | 247 | 4.0 | 6.0 | 0.00 | 0.01 | 0.01 | 80 | 1013.1 |
| 20260904121346 | 78 | 234 | 2.0 | 6.0 | 0.00 | 0.01 | 0.01 | 82 | 1013.3 |
| 20260904121221 | 78 | 297 | 1.0 | 1.0 | 0.00 | 0.01 | 0.01 | 82 | 1013.3 |
| 20260904121117 | 78 | 297 | 1.0 | 2.0 | 0.00 | 0.01 | 0.01 | 82 | 1013.1 |
| 20260904121028 | 78 | 296 | 1.0 | 2.0 | 0.00 | 0.01 | 0.01 | 82 | 1013.3 |
| 20260904120944 | 77 | 257 | 4.0 | 6.0 | 0.00 | 0.01 | 0.01 | 82 | 1013.3 |
| 20260904120820 | 77 | 247 | 4.0 | 4.0 | 0.00 | 0.01 | 0.01 | 83 | 1013.2 |
| 20260904120715 | 77 | 236 | 3.0 | 6.0 | 0.00 | 0.01 | 0.01 | 84 | 1013.3 |
| 20260904120627 | 77 | 243 | 1.0 | 3.0 | 0.00 | 0.01 | 0.01 | 85 | 1013.2 |
| 20260904120522 | 76 | 258 | 1.0 | 2.0 | 0.00 | 0.01 | 0.01 | 86 | 1013.2 |
| 20260904120418 | 76 | 283 | 1.0 | 2.0 | 0.00 | 0.01 | 0.01 | 86 | 1013.1 |
| 20260904120330 | 76 | 261 | 1.0 | 2.0 | 0.00 | 0.01 | 0.01 | 86 | 1013.1 |
| 20260904120225 | 76 | 270 | 2.0 | 2.0 | 0.00 | 0.01 | 0.01 | 86 | 1013.1 |
| 20260904120121 | 76 | 283 | 2.0 | 3.0 | 0.00 | 0.01 | 0.01 | 87 | 1013.1 |
| 20260904120016 | 75 | 298 | 2.0 | 2.0 | 0.00 | 0.01 | 0.01 | 87 | 1013.1 |
| 20260904115928 | 75 | 264 | 2.0 | 4.0 | 0.00 | 0.01 | 0.01 | 87 | 1013.1 |
| 20260904115823 | 75 | 259 | 2.0 | 3.0 | 0.00 | 0.01 | 0.01 | 87 | 1013.0 |
| 20260904115719 | 75 | 261 | 3.0 | 6.0 | 0.00 | 0.01 | 0.01 | 87 | 1013.0 |
| 20260904115631 | 75 | 239 | 4.0 | 6.0 | 0.00 | 0.01 | 0.01 | 88 | 1013.2 |
| 20260904115526 | 75 | 240 | 1.0 | 4.0 | 0.00 | 0.01 | 0.01 | 88 | 1013.1 |
| 20260904115422 | 75 | 243 | 1.0 | 1.0 | 0.00 | 0.01 | 0.01 | 88 | 1013.1 |
| 20260904115318 | 74 | 243 | 0.0 | 1.0 | 0.00 | 0.01 | 0.01 | 88 | 1012.8 |
| 20260904115230 | 74 | 243 | 1.0 | 2.0 | 0.00 | 0.01 | 0.01 | 88 | 1013.0 |
| 20260904115125 | 74 | 243 | 1.0 | 2.0 | 0.00 | 0.01 | 0.01 | 88 | 1013.1 |
| 20260904115021 | 74 | 244 | 1.0 | 2.0 | 0.00 | 0.01 | 0.01 | 88 | 1013.3 |
| 20260904114931 | 74 | 252 | 1.0 | 2.0 | 0.00 | 0.01 | 0.01 | 88 | 1013.1 |
| 20260904114446 | 74 | 272 | 0.0 | 1.0 | 0.00 | 0.01 | 0.01 | 88 | 1013.1 |
| 20260904114342 | 74 | 272 | 2.0 | 2.0 | 0.00 | 0.01 | 0.01 | 88 | 1013.2 |
| 20260904114218 | 74 | 273 | 2.0 | 3.0 | 0.00 | 0.01 | 0.01 | 89 | 1013.2 |
| 20260904114149 | 74 | 245 | 3.0 | 4.0 | 0.00 | 0.01 | 0.01 | 89 | 1013.2 |
| 20260904114025 | 74 | 288 | 2.0 | 2.0 | 0.00 | 0.01 | 0.01 | 89 | 1013.2 |
| 20260904113920 | 74 | 297 | 2.0 | 3.0 | 0.00 | 0.01 | 0.01 | 89 | 1013.2 |
| 20260904113856 | 74 | 260 | 1.0 | 2.0 | 0.00 | 0.01 | 0.01 | 89 | 1013.2 |
| 20260904113727 | 74 | 260 | 2.0 | 2.0 | 0.00 | 0.01 | 0.01 | 89 | 1013.2 |
| 20260904113623 | 74 | 265 | 2.0 | 3.0 | 0.00 | 0.01 | 0.01 | 89 | 1013.3 |
| 20260904113519 | 74 | 310 | 1.0 | 2.0 | 0.00 | 0.01 | 0.01 | 89 | 1013.3 |
| 20260904113430 | 74 | 258 | 2.0 | 3.0 | 0.00 | 0.01 | 0.01 | 89 | 1013.5 |
| 20260904113326 | 74 | 243 | 1.0 | 2.0 | 0.00 | 0.01 | 0.01 | 89 | 1013.3 |
| 20260904113221 | 74 | 265 | 2.0 | 3.0 | 0.00 | 0.01 | 0.01 | 90 | 1013.3 |
| 20260904113117 | 74 | 229 | 3.0 | 6.0 | 0.00 | 0.01 | 0.01 | 90 | 1013.3 |
| 20260904113029 | 73 | 242 | 2.0 | 4.0 | 0.00 | 0.01 | 0.01 | 90 | 1013.3 |
| 20260904112924 | 73 | 238 | 1.0 | 2.0 | 0.00 | 0.01 | 0.01 | 90 | 1013.3 |
| 20260904112820 | 73 | 239 | 2.0 | 4.0 | 0.00 | 0.01 | 0.01 | 90 | 1013.2 |
| 20260904112715 | 73 | 267 | 2.0 | 3.0 | 0.00 | 0.01 | 0.01 | 90 | 1013.3 |
| 20260904112627 | 73 | 257 | 2.0 | 3.0 | 0.00 | 0.01 | 0.01 | 90 | 1013.3 |
| 20260904112523 | 73 | 282 | 1.0 | 2.0 | 0.00 | 0.01 | 0.01 | 90 | 1013.3 |
| 20260904112418 | 73 | 286 | 1.0 | 2.0 | 0.00 | 0.01 | 0.01 | 90 | 1013.1 |
| 20260904112410 | 73 | 260 | 1.0 | 1.0 | 0.00 | 0.01 | 0.01 | 91 | 1013.1 |
| 20260904112225 | 73 | 263 | 2.0 | 3.0 | 0.00 | 0.01 | 0.01 | 91 | 1013.2 |
| 20260904112141 | 73 | 257 | 2.0 | 3.0 | 0.00 | 0.01 | 0.01 | 91 | 1013.2 |
| 20260904112017 | 73 | 256 | 1.0 | 3.0 | 0.00 | 0.01 | 0.01 | 91 | 1013.0 |
| 20260904111928 | 73 | 271 | 2.0 | 3.0 | 0.00 | 0.01 | 0.01 | 90 | 1013.2 |
| 20260904111824 | 73 | 297 | 1.0 | 2.0 | 0.00 | 0.01 | 0.01 | 90 | 1013.2 |
| 20260904111719 | 73 | 297 | 1.0 | 2.0 | 0.00 | 0.01 | 0.01 | 91 | 1013.0 |
| 20260904111615 | 73 | 297 | 1.0 | 1.0 | 0.00 | 0.01 | 0.01 | 90 | 1013.0 |
| 20260904111527 | 73 | 0.0 | 0.0 | 0.00 | 0.01 | 0.01 | 91 | 1013.1 | |
| 20260904111422 | 73 | 298 | 0.0 | 1.0 | 0.00 | 0.01 | 0.01 | 91 | 1013.1 |
| 20260904111318 | 73 | 298 | 1.0 | 2.0 | 0.00 | 0.01 | 0.01 | 91 | 1013.2 |
| 20260904111230 | 73 | 263 | 2.0 | 3.0 | 0.00 | 0.01 | 0.01 | 91 | 1013.0 |
| 20260904111125 | 73 | 252 | 1.0 | 2.0 | 0.00 | 0.01 | 0.01 | 90 | 1013.0 |
| 20260904111021 | 73 | 233 | 1.0 | 1.0 | 0.00 | 0.01 | 0.01 | 90 | 1012.9 |
| 20260904110916 | 73 | 0.0 | 0.0 | 0.00 | 0.01 | 0.01 | 91 | 1013.0 | |
| 20260904110828 | 73 | 233 | 1.0 | 2.0 | 0.00 | 0.01 | 0.01 | 90 | 1012.9 |
| 20260904110724 | 73 | 233 | 0.0 | 2.0 | 0.00 | 0.01 | 0.01 | 90 | 1012.9 |
| 20260904110619 | 72 | 233 | 0.0 | 1.0 | 0.00 | 0.01 | 0.01 | 90 | 1012.8 |
| 20260904110531 | 72 | 233 | 0.0 | 1.0 | 0.00 | 0.01 | 0.01 | 90 | 1012.8 |
| 20260904110426 | 72 | 0.0 | 0.0 | 0.00 | 0.01 | 0.01 | 90 | 1012.8 | |
| 20260904110338 | 72 | 0.0 | 0.0 | 0.00 | 0.01 | 0.01 | 90 | 1012.7 | |
| 20260904110129 | 72 | 0.0 | 0.0 | 0.00 | 0.01 | 0.01 | 90 | 1012.9 | |
| 20260904110025 | 72 | 0.0 | 0.0 | 0.00 | 0.01 | 0.01 | 90 | 1012.9 | |
| 20260904105920 | 72 | 233 | 0.0 | 1.0 | 0.00 | 0.01 | 0.01 | 90 | 1012.9 |
| 20260904105816 | 72 | 0.0 | 0.0 | 0.00 | 0.01 | 0.01 | 89 | 1012.8 | |
| 20260904105728 | 72 | 0.0 | 0.0 | 0.00 | 0.01 | 0.01 | 89 | 1012.8 | |
| 20260904105623 | 72 | 0.0 | 0.0 | 0.00 | 0.01 | 0.01 | 89 | 1012.9 | |
| 20260904105519 | 73 | 0.0 | 0.0 | 0.00 | 0.01 | 0.01 | 89 | 1012.9 | |
| 20260904105430 | 72 | 0.0 | 0.0 | 0.00 | 0.01 | 0.01 | 89 | 1012.8 | |
| 20260904105326 | 72 | 0.0 | 0.0 | 0.00 | 0.01 | 0.01 | 90 | 1012.9 | |
| 20260904105221 | 72 | 0.0 | 0.0 | 0.00 | 0.01 | 0.01 | 89 | 1012.8 | |
| 20260904105117 | 73 | 233 | 0.0 | 1.0 | 0.00 | 0.01 | 0.01 | 89 | 1012.8 |
| 20260904105029 | 73 | 0.0 | 0.0 | 0.00 | 0.01 | 0.01 | 89 | 1012.8 | |
| 20260904104924 | 73 | 0.0 | 0.0 | 0.00 | 0.01 | 0.01 | 89 | 1012.9 | |
| 20260904104820 | 73 | 0.0 | 0.0 | 0.00 | 0.01 | 0.01 | 89 | 1012.8 | |
| 20260904104715 | 73 | 0.0 | 0.0 | 0.00 | 0.01 | 0.01 | 89 | 1012.8 | |
| 20260904104627 | 73 | 233 | 0.0 | 1.0 | 0.00 | 0.01 | 0.01 | 89 | 1012.7 |
| 20260904104523 | 73 | 0.0 | 0.0 | 0.00 | 0.01 | 0.01 | 88 | 1012.7 | |
| 20260904104418 | 73 | 0.0 | 0.0 | 0.00 | 0.01 | 0.01 | 88 | 1012.7 | |
| 20260904104330 | 73 | 0.0 | 0.0 | 0.00 | 0.01 | 0.01 | 88 | 1012.7 | |
| 20260904104225 | 73 | 0.0 | 0.0 | 0.00 | 0.01 | 0.01 | 89 | 1012.8 | |
| 20260904104121 | 73 | 0.0 | 0.0 | 0.00 | 0.01 | 0.01 | 88 | 1012.9 | |
| 20260904104036 | 73 | 233 | 0.0 | 1.0 | 0.00 | 0.01 | 0.01 | 89 | 1012.7 |
| 20260904103928 | 73 | 233 | 0.0 | 1.0 | 0.00 | 0.01 | 0.01 | 89 | 1012.7 |
| 20260904103843 | 73 | 0.0 | 0.0 | 0.00 | 0.01 | 0.01 | 89 | 1012.6 | |
| 20260904103719 | 73 | 0.0 | 0.0 | 0.00 | 0.01 | 0.01 | 89 | 1012.8 | |
| 20260904103631 | 73 | 233 | 0.0 | 1.0 | 0.00 | 0.01 | 0.01 | 89 | 1012.7 |
| 20260904103526 | 73 | 0.0 | 0.0 | 0.00 | 0.01 | 0.01 | 89 | 1012.7 | |
| 20260904103421 | 73 | 0.0 | 0.0 | 0.00 | 0.01 | 0.01 | 89 | 1012.7 | |
| 20260904103316 | 73 | 0.0 | 0.0 | 0.00 | 0.01 | 0.01 | 89 | 1012.7 | |
| 20260904103228 | 73 | 0.0 | 0.0 | 0.00 | 0.01 | 0.01 | 89 | 1012.6 | |
| 20260904103124 | 73 | 0.0 | 0.0 | 0.00 | 0.01 | 0.01 | 90 | 1012.7 | |
| 20260904103040 | 73 | 233 | 1.0 | 1.0 | 0.00 | 0.01 | 0.01 | 90 | 1012.7 |
| 20260904102935 | 73 | 233 | 1.0 | 2.0 | 0.00 | 0.01 | 0.01 | 89 | 1012.7 |
| 20260904102827 | 73 | 233 | 0.0 | 1.0 | 0.00 | 0.01 | 0.01 | 89 | 1012.6 |
| 20260904102722 | 73 | 233 | 1.0 | 2.0 | 0.00 | 0.01 | 0.01 | 89 | 1012.6 |
| 20260904102618 | 73 | 233 | 0.0 | 1.0 | 0.00 | 0.01 | 0.01 | 89 | 1012.7 |
| 20260904102530 | 73 | 233 | 1.0 | 2.0 | 0.00 | 0.01 | 0.01 | 89 | 1012.6 |
| 20260904102425 | 73 | 233 | 1.0 | 2.0 | 0.00 | 0.01 | 0.01 | 89 | 1012.6 |
| 20260904102321 | 73 | 232 | 0.0 | 1.0 | 0.00 | 0.01 | 0.01 | 88 | 1012.5 |
| 20260904102216 | 73 | 232 | 0.0 | 1.0 | 0.00 | 0.01 | 0.01 | 88 | 1012.7 |
| 20260904102128 | 73 | 232 | 0.0 | 1.0 | 0.00 | 0.01 | 0.01 | 88 | 1012.5 |
| 20260904102024 | 73 | 232 | 1.0 | 1.0 | 0.00 | 0.01 | 0.01 | 88 | 1012.6 |
| 20260904101919 | 73 | 0.0 | 0.0 | 0.00 | 0.01 | 0.01 | 88 | 1012.5 | |
| 20260904101851 | 73 | 233 | 0.0 | 1.0 | 0.00 | 0.01 | 0.01 | 88 | 1012.7 |
| 20260904101726 | 73 | 233 | 0.0 | 1.0 | 0.00 | 0.01 | 0.01 | 88 | 1012.6 |
| 20260904101642 | 73 | 233 | 0.0 | 1.0 | 0.00 | 0.01 | 0.01 | 88 | 1012.6 |
| 20260904101537 | 73 | 0.0 | 0.0 | 0.00 | 0.01 | 0.01 | 88 | 1012.5 | |
| 20260904101429 | 73 | 232 | 1.0 | 1.0 | 0.00 | 0.01 | 0.01 | 88 | 1012.5 |
| 20260904101325 | 73 | 233 | 0.0 | 1.0 | 0.00 | 0.01 | 0.01 | 88 | 1012.6 |
| 20260904101220 | 73 | 233 | 1.0 | 1.0 | 0.00 | 0.01 | 0.01 | 88 | 1012.7 |
| 20260904101116 | 73 | 233 | 0.0 | 1.0 | 0.00 | 0.01 | 0.01 | 88 | 1012.5 |
| 20260904101048 | 73 | 0.0 | 0.0 | 0.00 | 0.01 | 0.01 | 89 | 1012.5 | |
| 20260904100923 | 73 | 0.0 | 0.0 | 0.00 | 0.01 | 0.01 | 89 | 1012.6 | |
| 20260904100819 | 73 | 233 | 1.0 | 1.0 | 0.00 | 0.01 | 0.01 | 89 | 1012.5 |
| 20260904100751 | 73 | 0.0 | 0.0 | 0.00 | 0.01 | 0.01 | 89 | 1012.6 | |
| 20260904100626 | 73 | 234 | 2.0 | 3.0 | 0.00 | 0.01 | 0.01 | 89 | 1012.7 |
| 20260904100522 | 73 | 222 | 1.0 | 2.0 | 0.00 | 0.01 | 0.01 | 88 | 1012.6 |
| 20260904100417 | 73 | 222 | 0.0 | 1.0 | 0.00 | 0.01 | 0.01 | 89 | 1012.7 |
| 20260904100329 | 73 | 222 | 0.0 | 1.0 | 0.00 | 0.01 | 0.01 | 89 | 1012.7 |
| 20260904100224 | 73 | 222 | 0.0 | 1.0 | 0.00 | 0.01 | 0.01 | 89 | 1012.6 |
| 20260904100120 | 73 | 222 | 2.0 | 3.0 | 0.00 | 0.01 | 0.01 | 89 | 1012.4 |
| 20260904100016 | 73 | 200 | 2.0 | 4.0 | 0.00 | 0.01 | 0.01 | 90 | 1012.4 |
| 20260904095927 | 73 | 232 | 2.0 | 4.0 | 0.00 | 0.01 | 0.01 | 89 | 1012.4 |
| 20260904095843 | 73 | 236 | 1.0 | 2.0 | 0.00 | 0.01 | 0.01 | 89 | 1012.5 |
| 20260904095718 | 73 | 236 | 0.0 | 1.0 | 0.00 | 0.01 | 0.01 | 88 | 1012.3 |
| 20260904095629 | 73 | 236 | 0.0 | 1.0 | 0.00 | 0.01 | 0.01 | 88 | 1012.4 |
| 20260904095545 | 73 | 236 | 0.0 | 1.0 | 0.00 | 0.01 | 0.01 | 88 | 1012.4 |
| 20260904095421 | 73 | 0.0 | 0.0 | 0.00 | 0.01 | 0.01 | 88 | 1012.5 | |
| 20260904095316 | 73 | 235 | 0.0 | 1.0 | 0.00 | 0.01 | 0.01 | 88 | 1012.5 |
| 20260904095228 | 73 | 236 | 0.0 | 1.0 | 0.00 | 0.01 | 0.01 | 88 | 1012.5 |
| 20260904095123 | 73 | 0.0 | 0.0 | 0.00 | 0.01 | 0.01 | 88 | 1012.5 | |
| 20260904095019 | 73 | 235 | 1.0 | 2.0 | 0.00 | 0.01 | 0.01 | 88 | 1012.4 |
| 20260904095011 | 73 | 249 | 0.0 | 1.0 | 0.00 | 0.01 | 0.01 | 88 | 1012.6 |
| 20260904094846 | 73 | 0.0 | 0.0 | 0.00 | 0.01 | 0.01 | 87 | 1012.5 | |
| 20260904094721 | 73 | 249 | 0.0 | 1.0 | 0.00 | 0.01 | 0.01 | 88 | 1012.6 |
| 20260904094617 | 73 | 249 | 0.0 | 1.0 | 0.00 | 0.01 | 0.01 | 88 | 1012.3 |
| 20260904094549 | 73 | 249 | 0.0 | 1.0 | 0.00 | 0.01 | 0.01 | 88 | 1012.5 |
| 20260904094424 | 73 | 249 | 0.0 | 1.0 | 0.00 | 0.01 | 0.01 | 88 | 1012.4 |
| 20260904094320 | 73 | 0.0 | 0.0 | 0.00 | 0.01 | 0.01 | 88 | 1012.4 | |
| 20260904094215 | 73 | 0.0 | 0.0 | 0.00 | 0.01 | 0.01 | 89 | 1012.5 | |
| 20260904094127 | 73 | 249 | 1.0 | 1.0 | 0.00 | 0.01 | 0.01 | 89 | 1012.4 |
| 20260904094022 | 73 | 249 | 0.0 | 1.0 | 0.00 | 0.01 | 0.01 | 88 | 1012.4 |
| 20260904093918 | 73 | 249 | 0.0 | 1.0 | 0.00 | 0.01 | 0.01 | 88 | 1012.3 |
| 20260904093829 | 73 | 249 | 1.0 | 2.0 | 0.00 | 0.01 | 0.01 | 89 | 1012.4 |
| 20260904093725 | 73 | 249 | 0.0 | 1.0 | 0.00 | 0.01 | 0.01 | 88 | 1012.3 |
| 20260904093621 | 73 | 249 | 0.0 | 1.0 | 0.00 | 0.01 | 0.01 | 88 | 1012.4 |
| 20260904093516 | 73 | 249 | 0.0 | 1.0 | 0.00 | 0.01 | 0.01 | 88 | 1012.3 |
| 20260904093448 | 73 | 0.0 | 0.0 | 0.00 | 0.01 | 0.01 | 88 | 1012.4 | |
| 20260904093323 | 73 | 250 | 0.0 | 1.0 | 0.00 | 0.01 | 0.01 | 88 | 1012.4 |
| 20260904093219 | 73 | 0.0 | 0.0 | 0.00 | 0.01 | 0.01 | 89 | 1012.3 | |
| 20260904093131 | 73 | 249 | 1.0 | 2.0 | 0.00 | 0.01 | 0.01 | 89 | 1012.3 |
| 20260904093046 | 73 | 251 | 0.0 | 1.0 | 0.00 | 0.01 | 0.01 | 88 | 1012.4 |
| 20260904092922 | 73 | 0.0 | 0.0 | 0.00 | 0.01 | 0.01 | 88 | 1012.5 | |
| 20260904092817 | 73 | 0.0 | 0.0 | 0.00 | 0.01 | 0.01 | 88 | 1012.5 | |
| 20260904092729 | 73 | 0.0 | 0.0 | 0.00 | 0.01 | 0.01 | 88 | 1012.5 | |
| 20260904092625 | 73 | 251 | 0.0 | 1.0 | 0.00 | 0.01 | 0.01 | 88 | 1012.5 |
| 20260904092520 | 73 | 251 | 2.0 | 2.0 | 0.00 | 0.01 | 0.01 | 89 | 1012.4 |
| 20260904092416 | 73 | 254 | 1.0 | 2.0 | 0.00 | 0.01 | 0.01 | 88 | 1012.5 |
| 20260904092328 | 73 | 240 | 2.0 | 2.0 | 0.00 | 0.01 | 0.01 | 88 | 1012.3 |
| 20260904092223 | 73 | 243 | 1.0 | 1.0 | 0.00 | 0.01 | 0.01 | 88 | 1012.4 |
| 20260904092119 | 73 | 243 | 1.0 | 2.0 | 0.00 | 0.01 | 0.01 | 88 | 1012.3 |
| 20260904092031 | 73 | 241 | 1.0 | 2.0 | 0.00 | 0.01 | 0.01 | 88 | 1012.2 |
| 20260904091926 | 73 | 243 | 1.0 | 2.0 | 0.00 | 0.01 | 0.01 | 88 | 1012.3 |
| 20260904091821 | 73 | 262 | 0.0 | 1.0 | 0.00 | 0.01 | 0.01 | 88 | 1012.2 |
| 20260904091717 | 73 | 262 | 0.0 | 1.0 | 0.00 | 0.01 | 0.01 | 88 | 1012.2 |
| 20260904091628 | 73 | 262 | 1.0 | 2.0 | 0.00 | 0.01 | 0.01 | 88 | 1012.3 |
| 20260904091524 | 73 | 262 | 1.0 | 1.0 | 0.00 | 0.01 | 0.01 | 88 | 1012.4 |
| 20260904091420 | 73 | 261 | 1.0 | 2.0 | 0.00 | 0.01 | 0.01 | 88 | 1012.5 |
| 20260904091315 | 73 | 261 | 1.0 | 1.0 | 0.00 | 0.01 | 0.01 | 88 | 1012.4 |
| 20260904091227 | 73 | 261 | 1.0 | 2.0 | 0.00 | 0.01 | 0.01 | 88 | 1012.4 |
| 20260904091122 | 73 | 240 | 2.0 | 2.0 | 0.00 | 0.01 | 0.01 | 88 | 1012.5 |
| 20260904091018 | 73 | 228 | 1.0 | 2.0 | 0.00 | 0.01 | 0.01 | 88 | 1012.5 |
| 20260904090930 | 73 | 233 | 1.0 | 2.0 | 0.00 | 0.01 | 0.01 | 88 | 1012.5 |
| 20260904090825 | 73 | 244 | 2.0 | 2.0 | 0.00 | 0.02 | 0.01 | 88 | 1012.4 |
| 20260904090721 | 73 | 247 | 1.0 | 3.0 | 0.00 | 0.02 | 0.01 | 88 | 1012.3 |
| 20260904090617 | 73 | 249 | 1.0 | 2.0 | 0.00 | 0.02 | 0.01 | 88 | 1012.5 |
| 20260904090529 | 73 | 249 | 2.0 | 3.0 | 0.00 | 0.02 | 0.01 | 88 | 1012.4 |
| 20260904090424 | 73 | 238 | 3.0 | 3.0 | 0.00 | 0.02 | 0.01 | 88 | 1012.4 |
| 20260904090319 | 73 | 235 | 2.0 | 3.0 | 0.00 | 0.02 | 0.01 | 88 | 1012.4 |
| 20260904090231 | 73 | 243 | 2.0 | 3.0 | 0.00 | 0.02 | 0.01 | 88 | 1012.3 |
| 20260904090127 | 73 | 242 | 2.0 | 3.0 | 0.00 | 0.02 | 0.01 | 88 | 1012.4 |
| 20260904090022 | 73 | 241 | 1.0 | 3.0 | 0.00 | 0.02 | 0.01 | 88 | 1012.4 |
| 20260904085918 | 73 | 252 | 2.0 | 3.0 | 0.00 | 0.02 | 0.01 | 88 | 1012.5 |
| 20260904085829 | 73 | 254 | 1.0 | 2.0 | 0.00 | 0.02 | 0.01 | 88 | 1012.4 |
| 20260904085725 | 73 | 256 | 1.0 | 2.0 | 0.00 | 0.02 | 0.01 | 87 | 1012.5 |
| 20260904085621 | 73 | 256 | 1.0 | 2.0 | 0.00 | 0.02 | 0.01 | 87 | 1012.6 |
| 20260904085556 | 73 | 257 | 1.0 | 2.0 | 0.00 | 0.02 | 0.01 | 87 | 1012.5 |
| 20260904085428 | 73 | 257 | 1.0 | 1.0 | 0.00 | 0.02 | 0.01 | 87 | 1012.3 |
| 20260904085324 | 73 | 257 | 1.0 | 1.0 | 0.00 | 0.02 | 0.01 | 87 | 1012.3 |
| 20260904085219 | 73 | 257 | 1.0 | 2.0 | 0.00 | 0.02 | 0.01 | 87 | 1012.4 |
| 20260904085131 | 73 | 257 | 1.0 | 2.0 | 0.00 | 0.02 | 0.01 | 87 | 1012.3 |
| 20260904085026 | 73 | 259 | 1.0 | 1.0 | 0.00 | 0.02 | 0.01 | 87 | 1012.3 |
| 20260904084922 | 73 | 259 | 0.0 | 1.0 | 0.00 | 0.02 | 0.01 | 87 | 1012.4 |
| 20260904084817 | 73 | 259 | 1.0 | 1.0 | 0.00 | 0.02 | 0.01 | 87 | 1012.3 |
| 20260904084728 | 73 | 253 | 2.0 | 3.0 | 0.00 | 0.02 | 0.01 | 87 | 1012.3 |
| 20260904084644 | 73 | 248 | 2.0 | 3.0 | 0.00 | 0.02 | 0.01 | 87 | 1012.3 |
| 20260904084520 | 73 | 246 | 1.0 | 2.0 | 0.00 | 0.02 | 0.01 | 87 | 1012.4 |
| 20260904084415 | 73 | 246 | 0.0 | 1.0 | 0.00 | 0.02 | 0.01 | 87 | 1012.4 |
| 20260904084327 | 73 | 245 | 1.0 | 2.0 | 0.00 | 0.02 | 0.01 | 87 | 1012.4 |
| 20260904084222 | 73 | 251 | 1.0 | 3.0 | 0.00 | 0.03 | 0.01 | 87 | 1012.5 |
| 20260904084118 | 73 | 257 | 0.0 | 1.0 | 0.00 | 0.03 | 0.01 | 87 | 1012.6 |
| 20260904084050 | 73 | 257 | 1.0 | 2.0 | 0.00 | 0.03 | 0.01 | 87 | 1012.4 |
| 20260904083945 | 73 | 259 | 1.0 | 2.0 | 0.00 | 0.03 | 0.01 | 87 | 1012.5 |
| 20260904083821 | 73 | 262 | 1.0 | 1.0 | 0.00 | 0.03 | 0.01 | 87 | 1012.4 |
| 20260904083716 | 73 | 263 | 1.0 | 3.0 | 0.00 | 0.03 | 0.01 | 87 | 1012.5 |
| 20260904083628 | 73 | 246 | 3.0 | 6.0 | 0.00 | 0.03 | 0.01 | 87 | 1012.4 |
| 20260904083524 | 73 | 241 | 2.0 | 2.0 | 0.00 | 0.03 | 0.01 | 87 | 1012.5 |
| 20260904083419 | 73 | 242 | 2.0 | 4.0 | 0.00 | 0.03 | 0.01 | 87 | 1012.5 |
| 20260904083410 | 73 | 244 | 1.0 | 3.0 | 0.00 | 0.03 | 0.01 | 87 | 1012.4 |
| 20260904083225 | 73 | 238 | 2.0 | 4.0 | 0.00 | 0.03 | 0.01 | 87 | 1012.3 |
| 20260904083121 | 73 | 231 | 1.0 | 2.0 | 0.00 | 0.03 | 0.01 | 87 | 1012.4 |
| 20260904083016 | 73 | 235 | 1.0 | 1.0 | 0.00 | 0.03 | 0.01 | 87 | 1012.4 |
| 20260904082928 | 73 | 237 | 1.0 | 2.0 | 0.00 | 0.03 | 0.01 | 87 | 1012.5 |
| 20260904082824 | 73 | 252 | 1.0 | 2.0 | 0.00 | 0.03 | 0.01 | 87 | 1012.5 |
| 20260904082720 | 73 | 252 | 1.0 | 2.0 | 0.00 | 0.03 | 0.01 | 87 | 1012.6 |
| 20260904082615 | 73 | 252 | 1.0 | 2.0 | 0.00 | 0.03 | 0.01 | 87 | 1012.7 |
| 20260904082527 | 73 | 254 | 2.0 | 2.0 | 0.00 | 0.04 | 0.01 | 87 | 1012.6 |
| 20260904082422 | 73 | 272 | 1.0 | 2.0 | 0.00 | 0.04 | 0.01 | 87 | 1012.7 |
| 20260904082318 | 73 | 253 | 2.0 | 3.0 | 0.00 | 0.04 | 0.01 | 87 | 1012.6 |
| 20260904082229 | 73 | 246 | 1.0 | 3.0 | 0.00 | 0.04 | 0.01 | 87 | 1012.5 |
| 20260904082145 | 73 | 253 | 1.0 | 2.0 | 0.00 | 0.04 | 0.01 | 87 | 1012.6 |
| 20260904082021 | 73 | 0.0 | 0.0 | 0.00 | 0.04 | 0.01 | 87 | 1012.5 | |
| 20260904081916 | 73 | 312 | 0.0 | 1.0 | 0.00 | 0.04 | 0.01 | 87 | 1012.7 |
| 20260904081828 | 73 | 312 | 1.0 | 2.0 | 0.00 | 0.04 | 0.01 | 87 | 1012.7 |
| 20260904081723 | 73 | 313 | 1.0 | 2.0 | 0.00 | 0.04 | 0.01 | 87 | 1012.6 |
| 20260904081619 | 73 | 303 | 2.0 | 3.0 | 0.00 | 0.04 | 0.01 | 87 | 1012.5 |
| 20260904081531 | 73 | 245 | 1.0 | 2.0 | 0.00 | 0.04 | 0.01 | 87 | 1012.6 |
| 20260904081426 | 73 | 245 | 1.0 | 2.0 | 0.00 | 0.04 | 0.01 | 87 | 1012.5 |
| 20260904081322 | 73 | 245 | 2.0 | 6.0 | 0.00 | 0.04 | 0.01 | 87 | 1012.5 |
| 20260904081217 | 73 | 242 | 3.0 | 6.0 | 0.00 | 0.04 | 0.01 | 87 | 1012.6 |
| 20260904081129 | 73 | 232 | 2.0 | 3.0 | 0.00 | 0.04 | 0.01 | 87 | 1012.4 |
| 20260904081025 | 73 | 232 | 3.0 | 4.0 | 0.00 | 0.04 | 0.01 | 87 | 1012.5 |
| 20260904080920 | 73 | 241 | 3.0 | 3.0 | 0.00 | 0.04 | 0.01 | 87 | 1012.5 |
| 20260904080816 | 73 | 246 | 2.0 | 3.0 | 0.00 | 0.04 | 0.01 | 87 | 1012.4 |
| 20260904080728 | 73 | 249 | 2.0 | 3.0 | 0.00 | 0.04 | 0.01 | 87 | 1012.3 |
| 20260904080623 | 73 | 241 | 1.0 | 2.0 | 0.00 | 0.04 | 0.01 | 87 | 1012.2 |
| 20260904080559 | 73 | 243 | 1.0 | 3.0 | 0.00 | 0.04 | 0.01 | 87 | 1012.2 |
| 20260904080430 | 73 | 257 | 1.0 | 3.0 | 0.00 | 0.04 | 0.01 | 87 | 1012.4 |
| 20260904080326 | 73 | 257 | 2.0 | 4.0 | 0.00 | 0.04 | 0.01 | 88 | 1012.3 |
| 20260904080221 | 73 | 267 | 3.0 | 4.0 | 0.00 | 0.04 | 0.01 | 88 | 1012.4 |
| 20260904080117 | 73 | 233 | 2.0 | 4.0 | 0.00 | 0.04 | 0.01 | 88 | 1012.4 |
| 20260904080028 | 73 | 231 | 2.0 | 2.0 | 0.00 | 0.04 | 0.01 | 88 | 1012.3 |
| 20260904075924 | 73 | 227 | 3.0 | 3.0 | 0.00 | 0.04 | 0.01 | 87 | 1012.3 |
| 20260904075819 | 73 | 267 | 3.0 | 4.0 | 0.00 | 0.04 | 0.01 | 87 | 1012.1 |
| 20260904075731 | 73 | 239 | 1.0 | 2.0 | 0.00 | 0.04 | 0.01 | 87 | 1012.2 |
| 20260904075626 | 73 | 238 | 1.0 | 2.0 | 0.00 | 0.04 | 0.01 | 87 | 1012.2 |
| 20260904075522 | 73 | 236 | 2.0 | 3.0 | 0.00 | 0.04 | 0.01 | 87 | 1012.4 |
| 20260904075417 | 73 | 232 | 2.0 | 3.0 | 0.00 | 0.04 | 0.01 | 87 | 1012.3 |
| 20260904075329 | 73 | 246 | 1.0 | 2.0 | 0.00 | 0.04 | 0.01 | 87 | 1012.1 |
| 20260904075225 | 73 | 245 | 1.0 | 1.0 | 0.00 | 0.04 | 0.01 | 87 | 1012.1 |
| 20260904075120 | 73 | 244 | 0.0 | 1.0 | 0.00 | 0.04 | 0.01 | 87 | 1012.1 |
| 20260904075016 | 73 | 241 | 1.0 | 3.0 | 0.00 | 0.04 | 0.01 | 87 | 1012.4 |
| 20260904074928 | 73 | 269 | 1.0 | 2.0 | 0.00 | 0.04 | 0.01 | 87 | 1012.3 |
| 20260904074823 | 73 | 269 | 1.0 | 2.0 | 0.00 | 0.04 | 0.01 | 86 | 1012.3 |
| 20260904074719 | 73 | 269 | 0.0 | 1.0 | 0.00 | 0.04 | 0.01 | 86 | 1012.3 |
| 20260904074630 | 73 | 269 | 1.0 | 1.0 | 0.00 | 0.04 | 0.01 | 86 | 1012.2 |
| 20260904074526 | 73 | 269 | 1.0 | 2.0 | 0.00 | 0.04 | 0.01 | 87 | 1012.4 |
| 20260904074422 | 73 | 266 | 2.0 | 3.0 | 0.00 | 0.04 | 0.01 | 86 | 1012.2 |
| 20260904074317 | 73 | 255 | 1.0 | 2.0 | 0.00 | 0.04 | 0.01 | 86 | 1012.1 |
| 20260904074229 | 73 | 255 | 0.0 | 2.0 | 0.00 | 0.04 | 0.01 | 86 | 1012.3 |
| 20260904074124 | 73 | 255 | 1.0 | 1.0 | 0.00 | 0.04 | 0.01 | 86 | 1012.3 |
| 20260904074020 | 73 | 255 | 1.0 | 1.0 | 0.00 | 0.04 | 0.01 | 86 | 1012.0 |
| 20260904073935 | 73 | 259 | 1.0 | 2.0 | 0.00 | 0.04 | 0.01 | 86 | 1012.3 |
| 20260904073847 | 73 | 266 | 1.0 | 2.0 | 0.00 | 0.04 | 0.01 | 86 | 1012.3 |
| 20260904073722 | 73 | 270 | 2.0 | 3.0 | 0.00 | 0.04 | 0.01 | 86 | 1012.2 |
| 20260904073638 | 73 | 254 | 1.0 | 1.0 | 0.00 | 0.04 | 0.01 | 86 | 1012.3 |
| 20260904073529 | 73 | 254 | 1.0 | 1.0 | 0.00 | 0.04 | 0.01 | 86 | 1012.2 |
| 20260904073425 | 73 | 255 | 1.0 | 1.0 | 0.00 | 0.04 | 0.01 | 86 | 1012.3 |
| 20260904073320 | 73 | 258 | 1.0 | 2.0 | 0.00 | 0.04 | 0.01 | 86 | 1012.1 |
| 20260904073216 | 73 | 253 | 3.0 | 4.0 | 0.00 | 0.04 | 0.01 | 86 | 1012.3 |
| 20260904073128 | 73 | 247 | 3.0 | 4.0 | 0.00 | 0.04 | 0.01 | 86 | 1012.1 |
| 20260904073023 | 73 | 237 | 1.0 | 2.0 | 0.00 | 0.04 | 0.01 | 85 | 1011.9 |
| 20260904072919 | 73 | 237 | 1.0 | 3.0 | 0.00 | 0.04 | 0.01 | 85 | 1012.0 |
| 20260904072831 | 73 | 240 | 2.0 | 3.0 | 0.00 | 0.04 | 0.01 | 85 | 1012.1 |
| 20260904072726 | 73 | 243 | 1.0 | 2.0 | 0.00 | 0.04 | 0.01 | 85 | 1012.0 |
| 20260904072622 | 73 | 242 | 1.0 | 2.0 | 0.00 | 0.04 | 0.01 | 85 | 1012.1 |
| 20260904072517 | 73 | 242 | 2.0 | 2.0 | 0.00 | 0.04 | 0.01 | 86 | 1012.0 |
| 20260904072429 | 73 | 242 | 2.0 | 2.0 | 0.00 | 0.04 | 0.01 | 85 | 1012.0 |
| 20260904072325 | 73 | 243 | 1.0 | 2.0 | 0.00 | 0.04 | 0.01 | 85 | 1012.0 |
| 20260904072220 | 73 | 243 | 0.0 | 1.0 | 0.00 | 0.04 | 0.01 | 85 | 1012.1 |
| 20260904072116 | 73 | 0.0 | 0.0 | 0.00 | 0.05 | 0.01 | 85 | 1011.9 | |
| 20260904072048 | 73 | 245 | 0.0 | 1.0 | 0.00 | 0.05 | 0.01 | 85 | 1012.0 |
| 20260904071943 | 73 | 245 | 1.0 | 2.0 | 0.00 | 0.05 | 0.01 | 85 | 1012.1 |
| 20260904071819 | 73 | 265 | 1.0 | 2.0 | 0.00 | 0.05 | 0.01 | 85 | 1012.0 |
| 20260904071750 | 74 | 266 | 2.0 | 2.0 | 0.01 | 0.05 | 0.01 | 85 | 1012.0 |
| 20260904071626 | 73 | 259 | 2.0 | 3.0 | 0.01 | 0.05 | 0.01 | 85 | 1012.0 |
| 20260904071522 | 74 | 244 | 2.0 | 4.0 | 0.01 | 0.05 | 0.01 | 85 | 1012.0 |
| 20260904071417 | 74 | 244 | 1.0 | 2.0 | 0.01 | 0.05 | 0.01 | 85 | 1012.0 |
| 20260904071329 | 74 | 238 | 2.0 | 3.0 | 0.01 | 0.05 | 0.01 | 85 | 1012.1 |
| 20260904071224 | 74 | 247 | 1.0 | 2.0 | 0.01 | 0.05 | 0.01 | 85 | 1012.2 |
| 20260904071140 | 74 | 239 | 1.0 | 2.0 | 0.01 | 0.05 | 0.01 | 85 | 1012.1 |
| 20260904071015 | 74 | 225 | 1.0 | 4.0 | 0.01 | 0.05 | 0.01 | 85 | 1012.1 |
| 20260904070927 | 74 | 221 | 1.0 | 3.0 | 0.01 | 0.06 | 0.01 | 84 | 1012.0 |
| 20260904070843 | 74 | 217 | 0.0 | 1.0 | 0.01 | 0.06 | 0.01 | 84 | 1012.0 |
| 20260904070718 | 74 | 216 | 0.0 | 1.0 | 0.01 | 0.06 | 0.01 | 85 | 1011.9 |
| 20260904070630 | 74 | 216 | 1.0 | 2.0 | 0.01 | 0.06 | 0.01 | 85 | 1012.0 |
| 20260904070545 | 74 | 218 | 1.0 | 1.0 | 0.01 | 0.06 | 0.01 | 85 | 1012.1 |
| 20260904070421 | 74 | 218 | 1.0 | 1.0 | 0.01 | 0.07 | 0.01 | 85 | 1012.3 |
| 20260904070337 | 74 | 218 | 1.0 | 1.0 | 0.01 | 0.07 | 0.01 | 85 | 1012.1 |
| 20260904070248 | 74 | 218 | 1.0 | 1.0 | 0.01 | 0.07 | 0.01 | 84 | 1012.2 |
| 20260904070124 | 74 | 0.0 | 0.0 | 0.01 | 0.08 | 0.01 | 84 | 1012.3 | |
| 20260904070039 | 74 | 0.0 | 0.0 | 0.01 | 0.08 | 0.01 | 84 | 1012.1 | |
| 20260904065915 | 74 | 218 | 1.0 | 2.0 | 0.01 | 0.08 | 0.01 | 85 | 1012.1 |
| 20260904065827 | 74 | 218 | 0.0 | 2.0 | 0.01 | 0.08 | 0.01 | 83 | 1012.2 |
| 20260904065722 | 74 | 240 | 0.0 | 1.0 | 0.01 | 0.09 | 0.01 | 83 | 1012.3 |
| 20260904065638 | 74 | 0.0 | 0.0 | 0.01 | 0.09 | 0.01 | 83 | 1012.1 | |
| 20260904065530 | 74 | 0.0 | 0.0 | 0.01 | 0.09 | 0.01 | 83 | 1012.2 | |
| 20260904065425 | 74 | 0.0 | 0.0 | 0.01 | 0.09 | 0.01 | 84 | 1012.2 | |
| 20260904065321 | 74 | 0.0 | 0.0 | 0.01 | 0.09 | 0.01 | 84 | 1012.3 | |
| 20260904065216 | 75 | 241 | 1.0 | 1.0 | 0.01 | 0.09 | 0.01 | 84 | 1012.1 |
| 20260904065128 | 75 | 241 | 0.0 | 1.0 | 0.01 | 0.09 | 0.01 | 84 | 1012.2 |
| 20260904065024 | 75 | 242 | 0.0 | 1.0 | 0.01 | 0.10 | 0.01 | 83 | 1012.1 |
| 20260904064920 | 75 | 242 | 1.0 | 1.0 | 0.01 | 0.10 | 0.01 | 83 | 1012.3 |
| 20260904064815 | 75 | 242 | 0.0 | 1.0 | 0.01 | 0.10 | 0.01 | 84 | 1012.2 |
| 20260904064727 | 75 | 0.0 | 0.0 | 0.01 | 0.10 | 0.01 | 83 | 1012.1 | |
| 20260904064622 | 75 | 0.0 | 0.0 | 0.01 | 0.10 | 0.01 | 84 | 1012.1 | |
| 20260904064518 | 75 | 242 | 1.0 | 1.0 | 0.01 | 0.11 | 0.01 | 84 | 1012.1 |
| 20260904064430 | 75 | 245 | 1.0 | 1.0 | 0.01 | 0.11 | 0.01 | 83 | 1012.3 |
| 20260904064325 | 75 | 249 | 1.0 | 2.0 | 0.01 | 0.11 | 0.01 | 83 | 1012.3 |
| 20260904064221 | 75 | 249 | 0.0 | 1.0 | 0.01 | 0.11 | 0.01 | 83 | 1012.2 |
| 20260904064116 | 75 | 249 | 0.0 | 1.0 | 0.01 | 0.11 | 0.01 | 83 | 1012.3 |
| 20260904064028 | 75 | 0.0 | 0.0 | 0.01 | 0.11 | 0.01 | 83 | 1012.2 | |
| 20260904063924 | 75 | 249 | 0.0 | 1.0 | 0.01 | 0.11 | 0.01 | 82 | 1012.1 |
| 20260904063839 | 75 | 249 | 0.0 | 1.0 | 0.01 | 0.11 | 0.01 | 82 | 1012.2 |
| 20260904063731 | 75 | 249 | 1.0 | 1.0 | 0.01 | 0.11 | 0.01 | 82 | 1012.2 |
| 20260904063626 | 75 | 249 | 1.0 | 1.0 | 0.01 | 0.11 | 0.01 | 81 | 1012.1 |
| 20260904063542 | 75 | 250 | 0.0 | 1.0 | 0.01 | 0.11 | 0.01 | 81 | 1012.2 |
| 20260904063417 | 76 | 0.0 | 0.0 | 0.01 | 0.11 | 0.01 | 82 | 1012.3 | |
| 20260904063349 | 76 | 250 | 1.0 | 1.0 | 0.01 | 0.12 | 0.01 | 82 | 1012.1 |
| 20260904063225 | 76 | 250 | 1.0 | 2.0 | 0.01 | 0.12 | 0.01 | 81 | 1012.0 |
| 20260904063140 | 76 | 251 | 1.0 | 1.0 | 0.01 | 0.12 | 0.01 | 81 | 1012.0 |
| 20260904063016 | 76 | 252 | 1.0 | 2.0 | 0.01 | 0.12 | 0.01 | 81 | 1012.3 |
| 20260904062927 | 76 | 252 | 1.0 | 2.0 | 0.01 | 0.12 | 0.01 | 81 | 1012.4 |
| 20260904062823 | 76 | 251 | 2.0 | 2.0 | 0.01 | 0.12 | 0.01 | 80 | 1012.3 |
| 20260904062719 | 76 | 251 | 1.0 | 3.0 | 0.01 | 0.12 | 0.01 | 79 | 1012.1 |
| 20260904062630 | 76 | 252 | 0.0 | 1.0 | 0.01 | 0.12 | 0.01 | 79 | 1012.2 |
| 20260904062525 | 76 | 253 | 1.0 | 2.0 | 0.01 | 0.13 | 0.01 | 79 | 1012.4 |
| 20260904062441 | 76 | 253 | 0.0 | 1.0 | 0.01 | 0.13 | 0.01 | 80 | 1012.3 |
| 20260904062337 | 76 | 257 | 2.0 | 3.0 | 0.01 | 0.13 | 0.01 | 80 | 1012.1 |
| 20260904062228 | 76 | 280 | 2.0 | 4.0 | 0.01 | 0.13 | 0.01 | 79 | 1012.4 |
| 20260904062124 | 77 | 299 | 3.0 | 4.0 | 0.01 | 0.13 | 0.01 | 79 | 1012.5 |
| 20260904062020 | 77 | 238 | 3.0 | 7.0 | 0.01 | 0.13 | 0.01 | 78 | 1012.6 |
| 20260904061915 | 77 | 248 | 6.0 | 9.0 | 0.01 | 0.13 | 0.01 | 78 | 1012.6 |
| 20260904061827 | 77 | 247 | 5.0 | 9.0 | 0.01 | 0.13 | 0.01 | 77 | 1012.7 |
| 20260904061723 | 77 | 252 | 3.0 | 6.0 | 0.00 | 0.13 | 0.00 | 77 | 1012.7 |
| 20260904061618 | 77 | 280 | 5.0 | 9.0 | 0.00 | 0.13 | 0.00 | 77 | 1012.7 |
| 20260904061530 | 77 | 244 | 3.0 | 6.0 | 0.00 | 0.13 | 0.00 | 76 | 1012.7 |
| 20260904061425 | 77 | 241 | 5.0 | 8.0 | 0.00 | 0.13 | 0.00 | 75 | 1012.6 |
| 20260904061321 | 78 | 296 | 4.0 | 7.0 | 0.00 | 0.13 | 0.00 | 74 | 1012.5 |
| 20260904061237 | 78 | 259 | 4.0 | 8.0 | 0.00 | 0.13 | 0.00 | 74 | 1012.6 |
| 20260904061128 | 78 | 242 | 4.0 | 9.0 | 0.00 | 0.13 | 0.00 | 74 | 1012.7 |
| 20260904061044 | 78 | 240 | 5.0 | 9.0 | 0.00 | 0.13 | 0.00 | 74 | 1012.9 |
| 20260904060919 | 78 | 233 | 3.0 | 6.0 | 0.00 | 0.13 | 0.00 | 73 | 1013.0 |
| 20260904060815 | 78 | 234 | 5.0 | 8.0 | 0.00 | 0.13 | 0.00 | 73 | 1013.0 |
| 20260904060727 | 78 | 226 | 6.0 | 10.0 | 0.00 | 0.13 | 0.00 | 73 | 1012.8 |
| 20260904060622 | 78 | 243 | 3.0 | 6.0 | 0.00 | 0.13 | 0.00 | 73 | 1012.9 |
| 20260904060538 | 78 | 257 | 6.0 | 13.0 | 0.00 | 0.13 | 0.00 | 73 | 1013.0 |
| 20260904060429 | 78 | 238 | 5.0 | 9.0 | 0.00 | 0.13 | 0.00 | 73 | 1012.8 |
| 20260904060325 | 78 | 248 | 3.0 | 7.0 | 0.00 | 0.13 | 0.00 | 73 | 1012.8 |
| 20260904060221 | 78 | 271 | 4.0 | 7.0 | 0.00 | 0.13 | 0.00 | 73 | 1012.9 |
| 20260904060117 | 78 | 295 | 4.0 | 8.0 | 0.00 | 0.13 | 0.00 | 73 | 1013.0 |
| 20260904060028 | 78 | 254 | 5.0 | 9.0 | 0.00 | 0.13 | 0.00 | 73 | 1012.9 |
| 20260904055924 | 78 | 247 | 4.0 | 9.0 | 0.00 | 0.13 | 0.00 | 73 | 1012.9 |
| 20260904055839 | 78 | 233 | 6.0 | 10.0 | 0.00 | 0.13 | 0.00 | 73 | 1012.9 |
| 20260904055731 | 78 | 238 | 6.0 | 10.0 | 0.00 | 0.13 | 0.00 | 74 | 1013.0 |
| 20260904055626 | 78 | 235 | 5.0 | 10.0 | 0.00 | 0.13 | 0.00 | 75 | 1013.0 |
| 20260904055522 | 77 | 239 | 4.0 | 6.0 | 0.00 | 0.13 | 0.00 | 76 | 1012.9 |
| 20260904055417 | 77 | 236 | 6.0 | 9.0 | 0.00 | 0.13 | 0.00 | 77 | 1012.9 |
| 20260904055329 | 77 | 226 | 4.0 | 7.0 | 0.00 | 0.13 | 0.00 | 78 | 1013.0 |
| 20260904055225 | 77 | 224 | 4.0 | 8.0 | 0.00 | 0.14 | 0.00 | 79 | 1012.8 |
| 20260904055140 | 77 | 239 | 6.0 | 11.0 | 0.00 | 0.14 | 0.00 | 80 | 1012.9 |
| 20260904055016 | 77 | 249 | 3.0 | 6.0 | 0.00 | 0.14 | 0.00 | 81 | 1012.9 |
| 20260904054948 | 77 | 257 | 4.0 | 8.0 | 0.00 | 0.14 | 0.00 | 81 | 1012.7 |
| 20260904054823 | 77 | 224 | 5.0 | 9.0 | 0.00 | 0.14 | 0.00 | 82 | 1012.7 |
| 20260904054718 | 77 | 250 | 4.0 | 7.0 | 0.00 | 0.14 | 0.00 | 83 | 1012.6 |
| 20260904054650 | 77 | 237 | 4.0 | 10.0 | 0.00 | 0.14 | 0.00 | 84 | 1012.8 |
| 20260904054526 | 77 | 218 | 2.0 | 3.0 | 0.00 | 0.14 | 0.00 | 84 | 1012.9 |
| 20260904054421 | 77 | 223 | 0.0 | 1.0 | 0.00 | 0.14 | 0.00 | 84 | 1012.8 |
| 20260904054317 | 77 | 223 | 1.0 | 1.0 | 0.00 | 0.14 | 0.00 | 84 | 1013.1 |
| 20260904054228 | 77 | 222 | 1.0 | 2.0 | 0.00 | 0.14 | 0.00 | 84 | 1013.0 |
| 20260904054124 | 77 | 223 | 0.0 | 1.0 | 0.00 | 0.14 | 0.00 | 84 | 1013.0 |
| 20260904054020 | 77 | 223 | 1.0 | 1.0 | 0.00 | 0.14 | 0.00 | 84 | 1013.0 |
| 20260904053915 | 77 | 223 | 0.0 | 1.0 | 0.00 | 0.15 | 0.00 | 84 | 1013.2 |
| 20260904053847 | 77 | 222 | 1.0 | 1.0 | 0.00 | 0.15 | 0.00 | 84 | 1013.1 |
| 20260904053722 | 77 | 222 | 2.0 | 3.0 | 0.00 | 0.15 | 0.00 | 84 | 1013.2 |
| 20260904053618 | 77 | 228 | 2.0 | 3.0 | 0.00 | 0.15 | 0.00 | 84 | 1013.2 |
| 20260904053529 | 77 | 231 | 0.0 | 1.0 | 0.00 | 0.15 | 0.00 | 84 | 1013.1 |
| 20260904053425 | 76 | 231 | 1.0 | 2.0 | 0.00 | 0.15 | 0.00 | 84 | 1013.1 |
| 20260904053321 | 76 | 231 | 2.0 | 3.0 | 0.00 | 0.15 | 0.00 | 84 | 1013.1 |
| 20260904053216 | 76 | 234 | 1.0 | 2.0 | 0.00 | 0.15 | 0.00 | 84 | 1013.2 |
| 20260904053128 | 76 | 233 | 0.0 | 1.0 | 0.00 | 0.15 | 0.00 | 84 | 1013.4 |
| 20260904053023 | 76 | 234 | 0.0 | 1.0 | 0.00 | 0.15 | 0.00 | 84 | 1013.3 |
| 20260904052939 | 76 | 0.0 | 0.0 | 0.00 | 0.16 | 0.00 | 84 | 1013.3 | |
| 20260904052911 | 76 | 234 | 1.0 | 1.0 | 0.00 | 0.16 | 0.00 | 84 | 1013.3 |
| 20260904052746 | 76 | 234 | 1.0 | 2.0 | 0.00 | 0.16 | 0.00 | 84 | 1013.4 |
| 20260904052701 | 76 | 233 | 1.0 | 2.0 | 0.00 | 0.17 | 0.00 | 84 | 1013.4 |
| 20260904052517 | 76 | 233 | 2.0 | 3.0 | 0.00 | 0.17 | 0.00 | 84 | 1013.3 |
| 20260904052428 | 76 | 224 | 1.0 | 3.0 | 0.00 | 0.17 | 0.00 | 84 | 1013.5 |
| 20260904052324 | 76 | 216 | 1.0 | 1.0 | 0.00 | 0.17 | 0.00 | 84 | 1013.4 |
| 20260904052220 | 76 | 216 | 0.0 | 1.0 | 0.00 | 0.18 | 0.00 | 84 | 1013.2 |
| 20260904052115 | 76 | 216 | 1.0 | 1.0 | 0.00 | 0.18 | 0.00 | 84 | 1013.2 |
| 20260904052027 | 76 | 216 | 1.0 | 1.0 | 0.00 | 0.19 | 0.00 | 84 | 1013.4 |
| 20260904051923 | 76 | 216 | 0.0 | 1.0 | 0.00 | 0.19 | 0.00 | 84 | 1013.2 |
| 20260904051818 | 76 | 216 | 0.0 | 1.0 | 0.00 | 0.19 | 0.00 | 84 | 1013.2 |
| 20260904051730 | 76 | 216 | 0.0 | 1.0 | 0.00 | 0.19 | 0.00 | 84 | 1013.4 |
| 20260904051645 | 76 | 216 | 1.0 | 1.0 | 0.00 | 0.19 | 0.00 | 84 | 1013.3 |
| 20260904051521 | 76 | 215 | 1.0 | 1.0 | 0.00 | 0.19 | 0.00 | 84 | 1013.3 |
| 20260904051436 | 76 | 215 | 0.0 | 1.0 | 0.00 | 0.19 | 0.00 | 84 | 1013.3 |
| 20260904051328 | 76 | 215 | 0.0 | 1.0 | 0.00 | 0.19 | 0.00 | 84 | 1013.2 |
| 20260904051223 | 76 | 209 | 1.0 | 2.0 | 0.00 | 0.19 | 0.00 | 84 | 1013.2 |
| 20260904051119 | 76 | 202 | 1.0 | 2.0 | 0.00 | 0.19 | 0.00 | 84 | 1013.2 |
| 20260904051031 | 76 | 190 | 1.0 | 2.0 | 0.00 | 0.20 | 0.00 | 84 | 1013.2 |
| 20260904050926 | 76 | 190 | 1.0 | 1.0 | 0.00 | 0.20 | 0.00 | 84 | 1013.1 |
| 20260904050821 | 76 | 190 | 1.0 | 1.0 | 0.00 | 0.20 | 0.00 | 84 | 1013.3 |
| 20260904050718 | 76 | 189 | 0.0 | 1.0 | 0.00 | 0.20 | 0.00 | 84 | 1013.3 |
| 20260904050629 | 76 | 189 | 1.0 | 1.0 | 0.00 | 0.20 | 0.00 | 84 | 1013.4 |
| 20260904050524 | 76 | 189 | 0.0 | 1.0 | 0.00 | 0.20 | 0.00 | 84 | 1013.2 |
| 20260904050420 | 76 | 189 | 0.0 | 1.0 | 0.00 | 0.20 | 0.00 | 83 | 1013.1 |
| 20260904050315 | 76 | 0.0 | 0.0 | 0.00 | 0.20 | 0.00 | 83 | 1013.1 | |
| 20260904050247 | 76 | 189 | 0.0 | 1.0 | 0.00 | 0.20 | 0.00 | 83 | 1013.3 |
| 20260904050122 | 76 | 189 | 0.0 | 1.0 | 0.00 | 0.21 | 0.00 | 83 | 1013.3 |
| 20260904050018 | 76 | 189 | 1.0 | 2.0 | 0.00 | 0.21 | 0.00 | 83 | 1013.0 |
| 20260904045929 | 76 | 189 | 0.0 | 2.0 | 0.00 | 0.21 | 0.00 | 83 | 1013.1 |
| 20260904045825 | 76 | 189 | 0.0 | 1.0 | 0.00 | 0.21 | 0.00 | 83 | 1013.2 |
| 20260904045721 | 76 | 0.0 | 0.0 | 0.00 | 0.21 | 0.00 | 83 | 1013.1 | |
| 20260904045616 | 76 | 0.0 | 0.0 | 0.00 | 0.21 | 0.00 | 83 | 1013.2 | |
| 20260904045528 | 76 | 189 | 0.0 | 1.0 | 0.00 | 0.21 | 0.00 | 83 | 1013.2 |
| 20260904045423 | 76 | 0.0 | 0.0 | 0.00 | 0.21 | 0.00 | 83 | 1013.2 | |
| 20260904045319 | 76 | 189 | 0.0 | 1.0 | 0.00 | 0.21 | 0.00 | 83 | 1013.1 |
| 20260904045230 | 76 | 189 | 0.0 | 1.0 | 0.00 | 0.21 | 0.00 | 83 | 1013.0 |
| 20260904045206 | 77 | 189 | 0.0 | 1.0 | 0.00 | 0.21 | 0.00 | 83 | 1013.1 |
| 20260904045022 | 77 | 189 | 0.0 | 1.0 | 0.00 | 0.21 | 0.00 | 83 | 1013.2 |
| 20260904044917 | 77 | 189 | 0.0 | 1.0 | 0.00 | 0.21 | 0.00 | 83 | 1013.2 |
| 20260904044829 | 77 | 189 | 0.0 | 1.0 | 0.00 | 0.21 | 0.00 | 83 | 1013.2 |
| 20260904044744 | 77 | 189 | 0.0 | 1.0 | 0.00 | 0.21 | 0.00 | 83 | 1013.3 |
| 20260904044620 | 77 | 189 | 0.0 | 1.0 | 0.00 | 0.22 | 0.00 | 83 | 1013.0 |
| 20260904044515 | 77 | 189 | 0.0 | 1.0 | 0.00 | 0.22 | 0.00 | 83 | 1013.0 |
| 20260904044427 | 77 | 0.0 | 0.0 | 0.00 | 0.22 | 0.00 | 83 | 1013.1 | |
| 20260904044322 | 77 | 189 | 0.0 | 1.0 | 0.00 | 0.22 | 0.00 | 83 | 1013.1 |
| 20260904044218 | 77 | 0.0 | 0.0 | 0.00 | 0.22 | 0.00 | 83 | 1013.1 | |
| 20260904044130 | 77 | 189 | 0.0 | 1.0 | 0.00 | 0.22 | 0.00 | 83 | 1013.3 |
| 20260904044026 | 77 | 0.0 | 0.0 | 0.00 | 0.22 | 0.00 | 83 | 1013.2 | |
| 20260904043921 | 77 | 0.0 | 0.0 | 0.00 | 0.22 | 0.00 | 83 | 1013.3 | |
| 20260904043816 | 77 | 189 | 1.0 | 1.0 | 0.00 | 0.22 | 0.00 | 83 | 1013.2 |
| 20260904043728 | 77 | 189 | 1.0 | 1.0 | 0.00 | 0.22 | 0.00 | 83 | 1013.4 |
| 20260904043644 | 77 | 190 | 1.0 | 1.0 | 0.00 | 0.22 | 0.00 | 83 | 1013.4 |
| 20260904043519 | 77 | 0.0 | 0.0 | 0.00 | 0.22 | 0.00 | 83 | 1013.4 | |
| 20260904043431 | 77 | 189 | 0.0 | 1.0 | 0.00 | 0.23 | 0.00 | 83 | 1013.5 |
| 20260904043326 | 77 | 189 | 0.0 | 1.0 | 0.00 | 0.23 | 0.00 | 83 | 1013.5 |
| 20260904043222 | 77 | 189 | 0.0 | 1.0 | 0.00 | 0.23 | 0.00 | 83 | 1013.7 |
| 20260904043117 | 77 | 189 | 1.0 | 1.0 | 0.00 | 0.23 | 0.00 | 83 | 1013.4 |
| 20260904043029 | 77 | 199 | 1.0 | 2.0 | 0.00 | 0.23 | 0.00 | 83 | 1013.7 |
| 20260904042944 | 77 | 242 | 0.0 | 1.0 | 0.00 | 0.23 | 0.00 | 83 | 1013.5 |
| 20260904042820 | 77 | 247 | 1.0 | 3.0 | 0.00 | 0.23 | 0.00 | 83 | 1013.5 |
| 20260904042716 | 77 | 203 | 1.0 | 3.0 | 0.00 | 0.23 | 0.00 | 83 | 1013.7 |
| 20260904042627 | 77 | 182 | 0.0 | 1.0 | 0.00 | 0.23 | 0.00 | 83 | 1013.4 |
| 20260904042523 | 76 | 183 | 0.0 | 1.0 | 0.00 | 0.23 | 0.00 | 83 | 1013.5 |
| 20260904042418 | 76 | 0.0 | 0.0 | 0.00 | 0.23 | 0.00 | 83 | 1013.7 | |
| 20260904042330 | 76 | 183 | 0.0 | 1.0 | 0.00 | 0.23 | 0.00 | 83 | 1013.5 |
| 20260904042225 | 76 | 183 | 1.0 | 2.0 | 0.00 | 0.23 | 0.00 | 84 | 1013.7 |
| 20260904042121 | 76 | 223 | 1.0 | 1.0 | 0.00 | 0.24 | 0.00 | 83 | 1013.7 |
| 20260904042017 | 76 | 223 | 1.0 | 1.0 | 0.00 | 0.24 | 0.00 | 83 | 1013.6 |
| 20260904041928 | 76 | 223 | 0.0 | 1.0 | 0.00 | 0.24 | 0.00 | 83 | 1013.7 |
| 20260904041824 | 76 | 223 | 0.0 | 1.0 | 0.00 | 0.24 | 0.00 | 83 | 1013.7 |
| 20260904041720 | 76 | 223 | 1.0 | 2.0 | 0.00 | 0.24 | 0.00 | 83 | 1013.7 |
| 20260904041635 | 76 | 223 | 1.0 | 1.0 | 0.00 | 0.24 | 0.00 | 83 | 1013.5 |
| 20260904041527 | 76 | 223 | 1.0 | 1.0 | 0.00 | 0.24 | 0.00 | 83 | 1013.8 |
| 20260904041422 | 76 | 0.0 | 0.0 | 0.00 | 0.24 | 0.00 | 83 | 1013.8 | |
| 20260904041318 | 76 | 223 | 1.0 | 1.0 | 0.00 | 0.24 | 0.00 | 83 | 1013.5 |
| 20260904041230 | 76 | 223 | 0.0 | 1.0 | 0.00 | 0.24 | 0.00 | 83 | 1013.7 |
| 20260904041125 | 76 | 0.0 | 0.0 | 0.00 | 0.24 | 0.00 | 83 | 1013.7 | |
| 20260904041021 | 76 | 223 | 1.0 | 1.0 | 0.00 | 0.24 | 0.00 | 83 | 1013.9 |
| 20260904040916 | 76 | 223 | 1.0 | 1.0 | 0.00 | 0.24 | 0.00 | 83 | 1013.9 |
| 20260904040848 | 76 | 223 | 1.0 | 1.0 | 0.00 | 0.24 | 0.00 | 83 | 1013.6 |
| 20260904040724 | 76 | 223 | 0.0 | 1.0 | 0.00 | 0.24 | 0.00 | 83 | 1013.7 |
| 20260904040619 | 76 | 223 | 0.0 | 1.0 | 0.00 | 0.24 | 0.00 | 83 | 1013.9 |
| 20260904040531 | 76 | 223 | 0.0 | 1.0 | 0.00 | 0.24 | 0.00 | 83 | 1013.7 |
| 20260904040426 | 76 | 224 | 1.0 | 1.0 | 0.00 | 0.24 | 0.00 | 83 | 1013.7 |
| 20260904040322 | 76 | 224 | 1.0 | 1.0 | 0.00 | 0.24 | 0.00 | 83 | 1013.8 |
| 20260904040218 | 76 | 224 | 1.0 | 1.0 | 0.00 | 0.24 | 0.00 | 83 | 1013.8 |
| 20260904040149 | 76 | 224 | 1.0 | 1.0 | 0.00 | 0.24 | 0.00 | 83 | 1013.6 |
| 20260904040025 | 76 | 223 | 0.0 | 1.0 | 0.00 | 0.24 | 0.24 | 82 | 1013.8 |
| 20260904035920 | 76 | 224 | 0.0 | 1.0 | 0.00 | 0.24 | 0.24 | 82 | 1013.8 |
| 20260904035815 | 76 | 0.0 | 0.0 | 0.00 | 0.24 | 0.24 | 82 | 1013.6 | |
| 20260904035727 | 76 | 0.0 | 0.0 | 0.00 | 0.24 | 0.24 | 82 | 1013.8 | |
| 20260904035622 | 76 | 224 | 1.0 | 1.0 | 0.00 | 0.24 | 0.24 | 82 | 1013.7 |
| 20260904035518 | 76 | 0.0 | 0.0 | 0.00 | 0.24 | 0.24 | 82 | 1013.9 | |
| 20260904035430 | 76 | 224 | 0.0 | 1.0 | 0.00 | 0.24 | 0.24 | 83 | 1013.9 |
| 20260904035325 | 76 | 224 | 0.0 | 1.0 | 0.00 | 0.24 | 0.24 | 83 | 1014.0 |
| 20260904035241 | 76 | 224 | 0.0 | 1.0 | 0.00 | 0.24 | 0.24 | 82 | 1014.1 |
| 20260904035116 | 76 | 224 | 0.0 | 1.0 | 0.00 | 0.24 | 0.24 | 83 | 1014.0 |
| 20260904035028 | 77 | 224 | 1.0 | 1.0 | 0.00 | 0.24 | 0.24 | 82 | 1013.9 |
| 20260904034924 | 77 | 224 | 1.0 | 2.0 | 0.00 | 0.24 | 0.24 | 82 | 1013.8 |
| 20260904034859 | 77 | 0.0 | 0.0 | 0.00 | 0.24 | 0.24 | 82 | 1013.9 | |
| 20260904034731 | 77 | 226 | 1.0 | 2.0 | 0.00 | 0.24 | 0.24 | 82 | 1013.8 |
| 20260904034626 | 77 | 225 | 0.0 | 1.0 | 0.00 | 0.24 | 0.24 | 82 | 1013.8 |
| 20260904034522 | 77 | 225 | 0.0 | 1.0 | 0.00 | 0.24 | 0.24 | 82 | 1013.9 |
| 20260904034417 | 77 | 225 | 0.0 | 1.0 | 0.00 | 0.24 | 0.24 | 82 | 1013.9 |
| 20260904034329 | 77 | 0.0 | 0.0 | 0.00 | 0.24 | 0.24 | 82 | 1013.9 | |
| 20260904034225 | 77 | 225 | 0.0 | 1.0 | 0.00 | 0.24 | 0.24 | 82 | 1014.0 |
| 20260904034121 | 77 | 225 | 0.0 | 1.0 | 0.00 | 0.24 | 0.24 | 82 | 1013.9 |
| 20260904034016 | 77 | 226 | 0.0 | 1.0 | 0.00 | 0.24 | 0.24 | 82 | 1013.8 |
| 20260904033928 | 77 | 0.0 | 0.0 | 0.00 | 0.24 | 0.24 | 82 | 1013.8 | |
| 20260904033823 | 77 | 0.0 | 0.0 | 0.00 | 0.24 | 0.24 | 82 | 1013.8 | |
| 20260904033719 | 77 | 0.0 | 0.0 | 0.00 | 0.24 | 0.24 | 82 | 1013.8 | |
| 20260904033631 | 77 | 0.0 | 0.0 | 0.00 | 0.24 | 0.24 | 82 | 1013.8 | |
| 20260904033546 | 77 | 225 | 0.0 | 1.0 | 0.00 | 0.24 | 0.24 | 82 | 1013.8 |
| 20260904033422 | 77 | 225 | 0.0 | 1.0 | 0.00 | 0.24 | 0.24 | 82 | 1013.7 |
| 20260904033317 | 77 | 225 | 1.0 | 1.0 | 0.00 | 0.24 | 0.24 | 82 | 1013.7 |
| 20260904033229 | 77 | 225 | 1.0 | 1.0 | 0.00 | 0.24 | 0.24 | 82 | 1013.8 |
| 20260904033125 | 77 | 225 | 1.0 | 1.0 | 0.00 | 0.24 | 0.24 | 82 | 1013.7 |
| 20260904033020 | 77 | 225 | 1.0 | 1.0 | 0.00 | 0.24 | 0.24 | 82 | 1013.7 |
| 20260904032916 | 77 | 225 | 0.0 | 1.0 | 0.00 | 0.24 | 0.24 | 82 | 1013.7 |
| 20260904032827 | 77 | 0.0 | 0.0 | 0.00 | 0.24 | 0.24 | 82 | 1013.8 | |
| 20260904032723 | 77 | 0.0 | 0.0 | 0.00 | 0.24 | 0.24 | 82 | 1013.9 | |
| 20260904032639 | 77 | 0.0 | 0.0 | 0.00 | 0.24 | 0.24 | 82 | 1013.9 | |
| 20260904032550 | 77 | 225 | 0.0 | 1.0 | 0.00 | 0.24 | 0.24 | 82 | 1013.6 |
| 20260904032526 | 77 | 225 | 1.0 | 1.0 | 0.00 | 0.24 | 0.24 | 82 | 1013.7 |
| 20260904032322 | 77 | 225 | 1.0 | 1.0 | 0.00 | 0.24 | 0.24 | 82 | 1013.8 |
| 20260904032217 | 77 | 225 | 1.0 | 2.0 | 0.00 | 0.24 | 0.24 | 82 | 1013.8 |
| 20260904032129 | 77 | 225 | 1.0 | 1.0 | 0.00 | 0.24 | 0.24 | 82 | 1013.7 |
| 20260904032024 | 77 | 226 | 1.0 | 1.0 | 0.00 | 0.24 | 0.24 | 82 | 1013.6 |
| 20260904031920 | 77 | 226 | 1.0 | 1.0 | 0.00 | 0.24 | 0.24 | 82 | 1013.6 |
| 20260904031815 | 77 | 226 | 1.0 | 1.0 | 0.00 | 0.24 | 0.24 | 81 | 1013.6 |
| 20260904031727 | 77 | 226 | 0.0 | 1.0 | 0.00 | 0.24 | 0.24 | 81 | 1013.6 |
| 20260904031623 | 77 | 226 | 0.0 | 1.0 | 0.00 | 0.24 | 0.24 | 81 | 1013.5 |
| 20260904031518 | 77 | 226 | 0.0 | 1.0 | 0.00 | 0.24 | 0.24 | 81 | 1013.6 |
| 20260904031430 | 77 | 226 | 0.0 | 1.0 | 0.00 | 0.24 | 0.24 | 81 | 1013.5 |
| 20260904031326 | 77 | 0.0 | 0.0 | 0.00 | 0.24 | 0.24 | 81 | 1013.7 | |
| 20260904031221 | 77 | 0.0 | 0.0 | 0.00 | 0.24 | 0.24 | 81 | 1013.7 | |
| 20260904031117 | 77 | 0.0 | 0.0 | 0.00 | 0.24 | 0.24 | 82 | 1013.7 | |
| 20260904031028 | 77 | 0.0 | 0.0 | 0.00 | 0.24 | 0.24 | 82 | 1013.6 | |
| 20260904030924 | 77 | 226 | 1.0 | 1.0 | 0.00 | 0.24 | 0.24 | 82 | 1013.6 |
| 20260904030819 | 77 | 226 | 1.0 | 1.0 | 0.00 | 0.24 | 0.24 | 82 | 1013.5 |
| 20260904030715 | 77 | 225 | 1.0 | 1.0 | 0.00 | 0.24 | 0.24 | 82 | 1013.5 |
| 20260904030627 | 77 | 226 | 1.0 | 1.0 | 0.00 | 0.24 | 0.24 | 82 | 1013.6 |
| 20260904030522 | 77 | 226 | 1.0 | 1.0 | 0.00 | 0.24 | 0.24 | 82 | 1013.6 |
| 20260904030458 | 77 | 226 | 1.0 | 1.0 | 0.00 | 0.24 | 0.24 | 82 | 1013.7 |
| 20260904030329 | 77 | 226 | 1.0 | 1.0 | 0.00 | 0.24 | 0.24 | 81 | 1013.6 |
| 20260904030245 | 77 | 226 | 1.0 | 1.0 | 0.00 | 0.24 | 0.24 | 81 | 1013.6 |
| 20260904030140 | 77 | 226 | 1.0 | 1.0 | 0.00 | 0.24 | 0.24 | 81 | 1013.5 |
| 20260904030016 | 77 | 226 | 1.0 | 1.0 | 0.00 | 0.24 | 0.24 | 81 | 1013.6 |
| 20260904025948 | 77 | 226 | 1.0 | 1.0 | 0.00 | 0.24 | 0.24 | 82 | 1013.7 |
| 20260904025823 | 77 | 226 | 1.0 | 1.0 | 0.00 | 0.24 | 0.24 | 82 | 1013.7 |
| 20260904025719 | 77 | 226 | 1.0 | 1.0 | 0.00 | 0.24 | 0.24 | 81 | 1013.5 |
| 20260904025631 | 77 | 226 | 1.0 | 1.0 | 0.00 | 0.24 | 0.24 | 81 | 1013.8 |
| 20260904025546 | 77 | 226 | 0.0 | 1.0 | 0.00 | 0.24 | 0.24 | 81 | 1013.6 |
| 20260904025422 | 77 | 0.0 | 0.0 | 0.00 | 0.24 | 0.24 | 81 | 1013.7 | |
| 20260904025317 | 77 | 0.0 | 0.0 | 0.00 | 0.24 | 0.24 | 81 | 1013.7 | |
| 20260904025229 | 77 | 0.0 | 0.0 | 0.00 | 0.24 | 0.24 | 81 | 1014.0 | |
| 20260904025144 | 77 | 0.0 | 0.0 | 0.00 | 0.24 | 0.24 | 81 | 1014.1 | |
| 20260904025020 | 77 | 0.0 | 0.0 | 0.00 | 0.24 | 0.24 | 80 | 1013.9 | |
| 20260904024916 | 77 | 0.0 | 0.0 | 0.00 | 0.24 | 0.24 | 80 | 1014.0 | |
| 20260904024827 | 77 | 0.0 | 0.0 | 0.00 | 0.24 | 0.24 | 80 | 1014.0 | |
| 20260904024723 | 77 | 0.0 | 0.0 | 0.00 | 0.24 | 0.24 | 80 | 1014.1 | |
| 20260904024618 | 77 | 0.0 | 0.0 | 0.00 | 0.24 | 0.24 | 80 | 1014.1 | |
| 20260904024530 | 77 | 0.0 | 0.0 | 0.00 | 0.24 | 0.24 | 80 | 1014.0 | |
| 20260904024426 | 77 | 0.0 | 0.0 | 0.00 | 0.24 | 0.24 | 80 | 1014.1 | |
| 20260904024321 | 77 | 0.0 | 0.0 | 0.00 | 0.24 | 0.24 | 80 | 1014.1 | |
| 20260904024217 | 77 | 226 | 0.0 | 1.0 | 0.00 | 0.24 | 0.24 | 80 | 1014.1 |
| 20260904024128 | 77 | 0.0 | 0.0 | 0.00 | 0.24 | 0.24 | 80 | 1014.3 | |
| 20260904024024 | 77 | 0.0 | 0.0 | 0.00 | 0.24 | 0.24 | 80 | 1014.2 | |
| 20260904023919 | 78 | 0.0 | 0.0 | 0.00 | 0.24 | 0.24 | 80 | 1014.1 | |
| 20260904023815 | 78 | 0.0 | 0.0 | 0.00 | 0.24 | 0.24 | 80 | 1014.2 | |
| 20260904023727 | 77 | 0.0 | 0.0 | 0.00 | 0.24 | 0.24 | 80 | 1014.2 | |
| 20260904023622 | 77 | 0.0 | 0.0 | 0.00 | 0.24 | 0.24 | 80 | 1014.3 | |
| 20260904023518 | 78 | 226 | 0.0 | 1.0 | 0.00 | 0.24 | 0.24 | 80 | 1014.3 |
| 20260904023430 | 78 | 226 | 0.0 | 1.0 | 0.00 | 0.24 | 0.24 | 80 | 1014.3 |
| 20260904023325 | 78 | 226 | 0.0 | 1.0 | 0.00 | 0.24 | 0.24 | 80 | 1014.1 |
| 20260904023221 | 78 | 226 | 0.0 | 1.0 | 0.00 | 0.24 | 0.24 | 80 | 1014.1 |
| 20260904023117 | 78 | 0.0 | 0.0 | 0.00 | 0.24 | 0.24 | 80 | 1014.2 | |
| 20260904023028 | 78 | 0.0 | 0.0 | 0.00 | 0.24 | 0.24 | 80 | 1014.3 | |
| 20260904023004 | 78 | 0.0 | 0.0 | 0.00 | 0.24 | 0.24 | 80 | 1014.2 | |
| 20260904022819 | 78 | 226 | 0.0 | 1.0 | 0.00 | 0.24 | 0.24 | 80 | 1014.1 |
| 20260904022731 | 78 | 226 | 0.0 | 1.0 | 0.00 | 0.24 | 0.24 | 80 | 1014.1 |
| 20260904022626 | 78 | 226 | 0.0 | 1.0 | 0.00 | 0.24 | 0.24 | 80 | 1014.1 |
| 20260904022522 | 78 | 226 | 0.0 | 1.0 | 0.00 | 0.24 | 0.24 | 80 | 1014.0 |
| 20260904022418 | 78 | 226 | 0.0 | 1.0 | 0.00 | 0.24 | 0.24 | 80 | 1014.0 |
| 20260904022329 | 78 | 226 | 0.0 | 1.0 | 0.00 | 0.24 | 0.24 | 80 | 1014.0 |
| 20260904022225 | 78 | 226 | 0.0 | 1.0 | 0.00 | 0.24 | 0.24 | 80 | 1014.0 |
| 20260904022216 | 78 | 0.0 | 0.0 | 0.00 | 0.24 | 0.24 | 80 | 1014.0 | |
| 20260904021948 | 78 | 226 | 0.0 | 1.0 | 0.00 | 0.24 | 0.24 | 80 | 1014.0 |
| 20260904021823 | 78 | 0.0 | 0.0 | 0.00 | 0.24 | 0.24 | 80 | 1014.1 | |
| 20260904021719 | 78 | 0.0 | 0.0 | 0.00 | 0.24 | 0.24 | 80 | 1014.2 | |
| 20260904021631 | 78 | 0.0 | 0.0 | 0.00 | 0.24 | 0.24 | 80 | 1014.1 | |
| 20260904021526 | 78 | 226 | 0.0 | 1.0 | 0.00 | 0.24 | 0.24 | 80 | 1014.2 |
| 20260904021421 | 78 | 226 | 0.0 | 1.0 | 0.00 | 0.24 | 0.24 | 80 | 1014.3 |
| 20260904021317 | 78 | 226 | 0.0 | 1.0 | 0.00 | 0.24 | 0.24 | 79 | 1014.2 |
| 20260904021229 | 78 | 226 | 0.0 | 1.0 | 0.00 | 0.24 | 0.24 | 79 | 1014.1 |
| 20260904021144 | 78 | 226 | 0.0 | 1.0 | 0.00 | 0.24 | 0.24 | 79 | 1014.2 |
| 20260904021040 | 78 | 0.0 | 0.0 | 0.00 | 0.24 | 0.24 | 79 | 1014.4 | |
| 20260904020915 | 78 | 0.0 | 0.0 | 0.00 | 0.24 | 0.24 | 79 | 1014.4 | |
| 20260904020827 | 78 | 0.0 | 0.0 | 0.00 | 0.24 | 0.24 | 79 | 1014.5 | |
| 20260904020723 | 78 | 0.0 | 0.0 | 0.00 | 0.24 | 0.24 | 79 | 1014.5 | |
| 20260904020618 | 78 | 0.0 | 0.0 | 0.00 | 0.24 | 0.24 | 79 | 1014.5 | |
| 20260904020550 | 78 | 0.0 | 0.0 | 0.00 | 0.24 | 0.24 | 79 | 1014.5 | |
| 20260904020426 | 78 | 226 | 0.0 | 1.0 | 0.00 | 0.24 | 0.24 | 79 | 1014.5 |
| 20260904020321 | 78 | 0.0 | 0.0 | 0.00 | 0.24 | 0.24 | 79 | 1014.6 | |
| 20260904020217 | 78 | 0.0 | 0.0 | 0.00 | 0.24 | 0.24 | 79 | 1014.5 | |
| 20260904020128 | 78 | 0.0 | 0.0 | 0.00 | 0.24 | 0.24 | 79 | 1014.5 | |
| 20260904020024 | 78 | 0.0 | 0.0 | 0.00 | 0.24 | 0.24 | 79 | 1014.6 | |
| 20260904015919 | 78 | 0.0 | 0.0 | 0.00 | 0.24 | 0.24 | 79 | 1014.6 | |
| 20260904015831 | 78 | 226 | 0.0 | 1.0 | 0.00 | 0.24 | 0.24 | 79 | 1014.5 |
| 20260904015726 | 78 | 0.0 | 0.0 | 0.00 | 0.24 | 0.24 | 79 | 1014.5 | |
| 20260904015622 | 78 | 226 | 0.0 | 1.0 | 0.00 | 0.24 | 0.24 | 79 | 1014.5 |
| 20260904015518 | 78 | 0.0 | 0.0 | 0.00 | 0.24 | 0.24 | 79 | 1014.5 | |
| 20260904015429 | 78 | 0.0 | 0.0 | 0.00 | 0.24 | 0.24 | 79 | 1014.4 | |
| 20260904015325 | 78 | 0.0 | 0.0 | 0.00 | 0.24 | 0.24 | 79 | 1014.5 | |
| 20260904015220 | 78 | 0.0 | 0.0 | 0.00 | 0.24 | 0.24 | 79 | 1014.5 | |
| 20260904015115 | 78 | 0.0 | 0.0 | 0.00 | 0.24 | 0.24 | 79 | 1014.4 | |
| 20260904015047 | 78 | 0.0 | 0.0 | 0.00 | 0.24 | 0.24 | 80 | 1014.5 | |
| 20260904014922 | 78 | 0.0 | 0.0 | 0.00 | 0.24 | 0.24 | 80 | 1014.5 | |
| 20260904014830 | 78 | 0.0 | 0.0 | 0.00 | 0.24 | 0.24 | 80 | 1014.5 | |
| 20260904014645 | 78 | 226 | 0.0 | 1.0 | 0.00 | 0.24 | 0.24 | 80 | 1014.5 |
| 20260904014521 | 78 | 226 | 0.0 | 1.0 | 0.00 | 0.24 | 0.24 | 80 | 1014.5 |
| 20260904014416 | 78 | 226 | 0.0 | 1.0 | 0.00 | 0.24 | 0.24 | 80 | 1014.6 |
| 20260904014328 | 78 | 226 | 1.0 | 2.0 | 0.00 | 0.24 | 0.24 | 80 | 1014.6 |
| 20260904014224 | 78 | 234 | 1.0 | 2.0 | 0.00 | 0.24 | 0.24 | 80 | 1014.7 |
| 20260904014119 | 78 | 240 | 0.0 | 2.0 | 0.00 | 0.24 | 0.24 | 80 | 1014.7 |
| 20260904014055 | 78 | 240 | 0.0 | 1.0 | 0.00 | 0.24 | 0.24 | 80 | 1014.8 |
| 20260904013927 | 78 | 242 | 0.0 | 1.0 | 0.00 | 0.24 | 0.24 | 80 | 1015.0 |
| 20260904013902 | 78 | 243 | 0.0 | 1.0 | 0.00 | 0.24 | 0.24 | 80 | 1014.8 |
| 20260904013717 | 78 | 243 | 1.0 | 1.0 | 0.00 | 0.24 | 0.24 | 80 | 1014.7 |
| 20260904013629 | 78 | 243 | 1.0 | 1.0 | 0.00 | 0.24 | 0.24 | 80 | 1014.9 |
| 20260904013545 | 78 | 243 | 1.0 | 2.0 | 0.00 | 0.24 | 0.24 | 80 | 1015.0 |
| 20260904013440 | 78 | 243 | 1.0 | 1.0 | 0.00 | 0.24 | 0.24 | 81 | 1015.0 |
| 20260904013316 | 78 | 243 | 1.0 | 2.0 | 0.00 | 0.24 | 0.24 | 81 | 1014.8 |
| 20260904013228 | 78 | 243 | 1.0 | 2.0 | 0.00 | 0.24 | 0.24 | 80 | 1014.7 |
| 20260904013123 | 78 | 243 | 1.0 | 1.0 | 0.00 | 0.24 | 0.24 | 80 | 1014.7 |
| 20260904013019 | 78 | 243 | 1.0 | 1.0 | 0.00 | 0.24 | 0.24 | 81 | 1014.7 |
| 20260904012930 | 78 | 243 | 1.0 | 2.0 | 0.00 | 0.24 | 0.24 | 81 | 1014.8 |
| 20260904012826 | 78 | 244 | 0.0 | 1.0 | 0.00 | 0.24 | 0.24 | 80 | 1014.6 |
| 20260904012722 | 78 | 0.0 | 0.0 | 0.00 | 0.24 | 0.24 | 80 | 1014.8 | |
| 20260904012617 | 78 | 0.0 | 0.0 | 0.00 | 0.24 | 0.24 | 80 | 1014.9 | |
| 20260904012529 | 78 | 243 | 0.0 | 1.0 | 0.00 | 0.24 | 0.24 | 80 | 1014.6 |
| 20260904012424 | 78 | 244 | 0.0 | 1.0 | 0.00 | 0.24 | 0.24 | 80 | 1014.7 |
| 20260904012340 | 78 | 243 | 0.0 | 1.0 | 0.00 | 0.24 | 0.24 | 80 | 1014.7 |
| 20260904012215 | 78 | 0.0 | 0.0 | 0.00 | 0.24 | 0.24 | 80 | 1014.8 | |
| 20260904012127 | 78 | 0.0 | 0.0 | 0.00 | 0.24 | 0.24 | 80 | 1014.7 | |
| 20260904012023 | 78 | 0.0 | 0.0 | 0.00 | 0.24 | 0.24 | 80 | 1014.7 | |
| 20260904011958 | 78 | 0.0 | 0.0 | 0.00 | 0.24 | 0.24 | 80 | 1014.7 | |
| 20260904011830 | 78 | 0.0 | 0.0 | 0.00 | 0.24 | 0.24 | 80 | 1014.7 | |
| 20260904011745 | 78 | 0.0 | 0.0 | 0.00 | 0.24 | 0.24 | 80 | 1014.5 | |
| 20260904011621 | 78 | 0.0 | 0.0 | 0.00 | 0.24 | 0.24 | 80 | 1014.5 | |
| 20260904011516 | 78 | 0.0 | 0.0 | 0.00 | 0.24 | 0.24 | 80 | 1014.6 | |
| 20260904011428 | 78 | 0.0 | 0.0 | 0.00 | 0.24 | 0.24 | 80 | 1014.5 | |
| 20260904011324 | 78 | 0.0 | 0.0 | 0.00 | 0.24 | 0.24 | 80 | 1014.4 | |
| 20260904011239 | 78 | 0.0 | 0.0 | 0.00 | 0.24 | 0.24 | 80 | 1014.4 | |
| 20260904011150 | 78 | 243 | 0.0 | 1.0 | 0.00 | 0.24 | 0.24 | 80 | 1014.4 |
| 20260904011026 | 78 | 244 | 0.0 | 1.0 | 0.00 | 0.24 | 0.24 | 80 | 1014.5 |
| 20260904010922 | 78 | 244 | 0.0 | 1.0 | 0.00 | 0.24 | 0.24 | 80 | 1014.6 |
| 20260904010817 | 78 | 0.0 | 0.0 | 0.00 | 0.24 | 0.24 | 80 | 1014.5 | |
| 20260904010729 | 78 | 0.0 | 0.0 | 0.00 | 0.24 | 0.24 | 80 | 1014.4 | |
| 20260904010624 | 78 | 0.0 | 0.0 | 0.00 | 0.24 | 0.24 | 80 | 1014.4 | |
| 20260904010520 | 78 | 0.0 | 0.0 | 0.00 | 0.24 | 0.24 | 80 | 1014.4 | |
| 20260904010415 | 78 | 243 | 0.0 | 1.0 | 0.00 | 0.24 | 0.24 | 79 | 1014.3 |
| 20260904010327 | 78 | 0.0 | 0.0 | 0.00 | 0.24 | 0.24 | 79 | 1014.5 | |
| 20260904010243 | 78 | 244 | 0.0 | 1.0 | 0.00 | 0.24 | 0.24 | 79 | 1014.5 |
| 20260904010118 | 78 | 0.0 | 0.0 | 0.00 | 0.24 | 0.24 | 79 | 1014.4 | |
| 20260904010030 | 78 | 0.0 | 0.0 | 0.00 | 0.24 | 0.24 | 79 | 1014.5 | |
| 20260904005945 | 78 | 0.0 | 0.0 | 0.00 | 0.24 | 0.24 | 79 | 1014.3 | |
| 20260904005821 | 78 | 0.0 | 0.0 | 0.00 | 0.24 | 0.24 | 79 | 1014.5 | |
| 20260904005716 | 78 | 0.0 | 0.0 | 0.00 | 0.24 | 0.24 | 79 | 1014.3 | |
| 20260904005628 | 78 | 0.0 | 0.0 | 0.00 | 0.24 | 0.24 | 79 | 1014.3 | |
| 20260904005524 | 78 | 0.0 | 0.0 | 0.00 | 0.24 | 0.24 | 79 | 1014.4 | |
| 20260904005419 | 78 | 0.0 | 0.0 | 0.00 | 0.24 | 0.24 | 79 | 1014.4 | |
| 20260904005331 | 78 | 0.0 | 0.0 | 0.00 | 0.24 | 0.24 | 79 | 1014.3 | |
| 20260904005226 | 78 | 0.0 | 0.0 | 0.00 | 0.24 | 0.24 | 79 | 1014.4 | |
| 20260904005122 | 78 | 244 | 0.0 | 1.0 | 0.00 | 0.24 | 0.24 | 79 | 1014.4 |
| 20260904005017 | 78 | 243 | 0.0 | 1.0 | 0.00 | 0.24 | 0.24 | 79 | 1014.2 |
| 20260904004929 | 78 | 0.0 | 0.0 | 0.00 | 0.24 | 0.24 | 79 | 1014.3 | |
| 20260904004824 | 78 | 0.0 | 0.0 | 0.00 | 0.24 | 0.24 | 79 | 1014.3 | |
| 20260904004720 | 78 | 0.0 | 0.0 | 0.00 | 0.24 | 0.24 | 79 | 1014.3 | |
| 20260904004615 | 78 | 0.0 | 0.0 | 0.00 | 0.24 | 0.24 | 79 | 1014.3 | |
| 20260904004527 | 78 | 0.0 | 0.0 | 0.00 | 0.24 | 0.24 | 79 | 1014.4 | |
| 20260904004503 | 78 | 0.0 | 0.0 | 0.00 | 0.24 | 0.24 | 79 | 1014.6 | |
| 20260904004319 | 78 | 244 | 1.0 | 1.0 | 0.00 | 0.24 | 0.24 | 79 | 1014.4 |
| 20260904004230 | 78 | 0.0 | 0.0 | 0.00 | 0.24 | 0.24 | 79 | 1014.3 | |
| 20260904004126 | 78 | 0.0 | 0.0 | 0.00 | 0.24 | 0.24 | 79 | 1014.2 | |
| 20260904004041 | 78 | 0.0 | 0.0 | 0.00 | 0.24 | 0.24 | 79 | 1014.2 | |
| 20260904003917 | 78 | 0.0 | 0.0 | 0.00 | 0.24 | 0.24 | 78 | 1014.3 | |
| 20260904003848 | 78 | 0.0 | 0.0 | 0.00 | 0.24 | 0.24 | 78 | 1014.2 | |
| 20260904003724 | 79 | 244 | 0.0 | 1.0 | 0.00 | 0.24 | 0.24 | 79 | 1014.2 |
| 20260904003619 | 79 | 244 | 0.0 | 1.0 | 0.00 | 0.24 | 0.24 | 78 | 1014.2 |
| 20260904003551 | 79 | 0.0 | 0.0 | 0.00 | 0.24 | 0.24 | 78 | 1014.2 | |
| 20260904003427 | 79 | 0.0 | 0.0 | 0.00 | 0.24 | 0.24 | 78 | 1014.3 | |
| 20260904003322 | 79 | 0.0 | 0.0 | 0.00 | 0.24 | 0.24 | 79 | 1014.3 | |
| 20260904003218 | 79 | 244 | 0.0 | 1.0 | 0.00 | 0.24 | 0.24 | 79 | 1014.3 |
| 20260904003129 | 79 | 244 | 0.0 | 1.0 | 0.00 | 0.24 | 0.24 | 78 | 1014.3 |
| 20260904003025 | 79 | 0.0 | 0.0 | 0.00 | 0.24 | 0.24 | 78 | 1014.1 | |
| 20260904002920 | 79 | 0.0 | 0.0 | 0.00 | 0.24 | 0.24 | 78 | 1014.0 | |
| 20260904002816 | 79 | 244 | 0.0 | 1.0 | 0.00 | 0.24 | 0.24 | 78 | 1014.0 |
| 20260904002728 | 79 | 244 | 0.0 | 1.0 | 0.00 | 0.24 | 0.24 | 78 | 1013.9 |
| 20260904002624 | 79 | 244 | 0.0 | 1.0 | 0.00 | 0.24 | 0.24 | 78 | 1013.8 |
| 20260904002519 | 79 | 244 | 0.0 | 1.0 | 0.00 | 0.24 | 0.24 | 78 | 1013.9 |
| 20260904002511 | 79 | 0.0 | 0.0 | 0.00 | 0.24 | 0.24 | 78 | 1013.9 | |
| 20260904002326 | 79 | 0.0 | 0.0 | 0.00 | 0.24 | 0.24 | 78 | 1014.1 | |
| 20260904002242 | 79 | 0.0 | 0.0 | 0.00 | 0.24 | 0.24 | 78 | 1014.2 | |
| 20260904002118 | 79 | 0.0 | 0.0 | 0.00 | 0.24 | 0.24 | 78 | 1013.9 | |
| 20260904002029 | 79 | 0.0 | 0.0 | 0.00 | 0.24 | 0.24 | 78 | 1013.9 | |
| 20260904001924 | 79 | 0.0 | 0.0 | 0.00 | 0.24 | 0.24 | 78 | 1013.9 | |
| 20260904001840 | 79 | 0.0 | 0.0 | 0.00 | 0.24 | 0.24 | 78 | 1013.9 | |
| 20260904001716 | 79 | 0.0 | 0.0 | 0.00 | 0.24 | 0.24 | 78 | 1014.0 | |
| 20260904001627 | 79 | 0.0 | 0.0 | 0.00 | 0.24 | 0.24 | 78 | 1014.1 | |
| 20260904001542 | 79 | 244 | 1.0 | 1.0 | 0.00 | 0.24 | 0.24 | 79 | 1013.9 |
| 20260904001418 | 79 | 244 | 1.0 | 1.0 | 0.00 | 0.24 | 0.24 | 77 | 1013.9 |
| 20260904001350 | 79 | 244 | 0.0 | 1.0 | 0.00 | 0.24 | 0.24 | 77 | 1014.1 |
| 20260904001225 | 79 | 244 | 0.0 | 1.0 | 0.00 | 0.24 | 0.24 | 77 | 1014.3 |
| 20260904001121 | 79 | 0.0 | 0.0 | 0.00 | 0.24 | 0.24 | 77 | 1014.4 | |
| 20260904001036 | 80 | 0.0 | 0.0 | 0.00 | 0.24 | 0.24 | 77 | 1014.4 | |
| 20260904000948 | 80 | 244 | 0.0 | 1.0 | 0.00 | 0.24 | 0.24 | 77 | 1014.3 |
| 20260904000824 | 80 | 244 | 0.0 | 1.0 | 0.00 | 0.24 | 0.24 | 76 | 1014.4 |
| 20260904000719 | 80 | 0.0 | 0.0 | 0.00 | 0.24 | 0.24 | 76 | 1014.4 | |
| 20260904000631 | 80 | 0.0 | 0.0 | 0.00 | 0.24 | 0.24 | 77 | 1014.2 | |
| 20260904000527 | 80 | 0.0 | 0.0 | 0.00 | 0.24 | 0.24 | 77 | 1014.3 | |
| 20260904000422 | 80 | 0.0 | 0.0 | 0.00 | 0.24 | 0.24 | 77 | 1014.1 | |
| 20260904000318 | 80 | 244 | 0.0 | 1.0 | 0.00 | 0.24 | 0.24 | 76 | 1014.0 |
| 20260904000229 | 80 | 0.0 | 0.0 | 0.00 | 0.24 | 0.24 | 76 | 1014.3 | |
| 20260904000125 | 80 | 0.0 | 0.0 | 0.00 | 0.24 | 0.24 | 76 | 1014.3 | |
| 20260904000021 | 80 | 0.0 | 0.0 | 0.00 | 0.24 | 0.24 | 76 | 1014.3 | |
| 20260903235916 | 80 | 0.0 | 0.0 | 0.00 | 0.24 | 0.24 | 76 | 1014.3 | |
| 20260903235828 | 80 | 0.0 | 0.0 | 0.00 | 0.24 | 0.24 | 76 | 1014.2 | |
| 20260903235723 | 80 | 0.0 | 0.0 | 0.00 | 0.24 | 0.24 | 76 | 1014.2 | |
| 20260903235619 | 80 | 0.0 | 0.0 | 0.00 | 0.24 | 0.24 | 76 | 1014.2 | |
| 20260903235531 | 80 | 0.0 | 0.0 | 0.00 | 0.24 | 0.24 | 76 | 1014.1 | |
| 20260903235426 | 80 | 0.0 | 0.0 | 0.00 | 0.24 | 0.24 | 76 | 1014.1 | |
| 20260903235322 | 80 | 0.0 | 0.0 | 0.00 | 0.24 | 0.24 | 76 | 1014.1 | |
| 20260903235217 | 80 | 0.0 | 0.0 | 0.00 | 0.24 | 0.24 | 76 | 1014.1 | |
| 20260903235129 | 80 | 0.0 | 0.0 | 0.00 | 0.24 | 0.24 | 76 | 1014.1 | |
| 20260903235025 | 80 | 0.0 | 0.0 | 0.00 | 0.24 | 0.24 | 76 | 1014.1 | |
| 20260903234920 | 80 | 0.0 | 0.0 | 0.00 | 0.24 | 0.24 | 75 | 1014.1 | |
| 20260903234816 | 81 | 0.0 | 0.0 | 0.00 | 0.24 | 0.24 | 75 | 1014.1 | |
| 20260903234727 | 81 | 0.0 | 0.0 | 0.00 | 0.24 | 0.24 | 75 | 1014.0 | |
| 20260903234623 | 81 | 0.0 | 0.0 | 0.00 | 0.24 | 0.24 | 75 | 1014.0 | |
| 20260903234519 | 81 | 244 | 0.0 | 1.0 | 0.00 | 0.24 | 0.24 | 75 | 1014.0 |
| 20260903234430 | 81 | 243 | 1.0 | 1.0 | 0.00 | 0.24 | 0.24 | 75 | 1013.9 |
| 20260903234326 | 81 | 244 | 1.0 | 1.0 | 0.00 | 0.24 | 0.24 | 75 | 1014.0 |
| 20260903234221 | 81 | 244 | 0.0 | 1.0 | 0.00 | 0.24 | 0.24 | 75 | 1014.0 |
| 20260903234116 | 81 | 0.0 | 0.0 | 0.00 | 0.24 | 0.24 | 74 | 1013.9 | |
| 20260903234028 | 81 | 0.0 | 0.0 | 0.00 | 0.24 | 0.24 | 74 | 1013.9 | |
| 20260903233924 | 81 | 0.0 | 0.0 | 0.00 | 0.24 | 0.24 | 74 | 1013.9 | |
| 20260903233839 | 81 | 0.0 | 0.0 | 0.00 | 0.24 | 0.24 | 74 | 1013.9 | |
| 20260903233715 | 81 | 0.0 | 0.0 | 0.00 | 0.24 | 0.24 | 74 | 1013.6 | |
| 20260903233647 | 82 | 0.0 | 0.0 | 0.00 | 0.24 | 0.24 | 74 | 1013.8 | |
| 20260903233522 | 82 | 0.0 | 0.0 | 0.00 | 0.24 | 0.24 | 74 | 1013.9 | |
| 20260903233418 | 82 | 244 | 0.0 | 1.0 | 0.00 | 0.24 | 0.24 | 74 | 1013.7 |
| 20260903233329 | 82 | 0.0 | 0.0 | 0.00 | 0.24 | 0.24 | 74 | 1013.9 | |
| 20260903233225 | 82 | 0.0 | 0.0 | 0.00 | 0.24 | 0.24 | 74 | 1013.9 | |
| 20260903233121 | 82 | 243 | 0.0 | 1.0 | 0.00 | 0.24 | 0.24 | 74 | 1013.8 |
| 20260903233016 | 82 | 0.0 | 0.0 | 0.00 | 0.24 | 0.24 | 73 | 1013.8 | |
| 20260903232948 | 82 | 0.0 | 0.0 | 0.00 | 0.24 | 0.24 | 73 | 1013.9 | |
| 20260903232824 | 82 | 0.0 | 0.0 | 0.00 | 0.24 | 0.24 | 73 | 1013.8 | |
| 20260903232719 | 82 | 0.0 | 0.0 | 0.00 | 0.24 | 0.24 | 73 | 1013.7 | |
| 20260903232651 | 82 | 0.0 | 0.0 | 0.00 | 0.24 | 0.24 | 73 | 1013.8 | |
| 20260903232526 | 83 | 0.0 | 0.0 | 0.00 | 0.24 | 0.24 | 73 | 1013.8 | |
| 20260903232421 | 83 | 0.0 | 0.0 | 0.00 | 0.24 | 0.24 | 73 | 1013.8 | |
| 20260903232317 | 83 | 0.0 | 0.0 | 0.00 | 0.24 | 0.24 | 73 | 1013.6 | |
| 20260903232229 | 83 | 0.0 | 0.0 | 0.00 | 0.24 | 0.24 | 73 | 1013.7 | |
| 20260903232124 | 83 | 0.0 | 0.0 | 0.00 | 0.24 | 0.24 | 73 | 1013.7 | |
| 20260903232020 | 83 | 244 | 0.0 | 1.0 | 0.00 | 0.24 | 0.24 | 73 | 1013.6 |
| 20260903231936 | 83 | 0.0 | 0.0 | 0.00 | 0.24 | 0.24 | 73 | 1013.8 | |
| 20260903231827 | 83 | 0.0 | 0.0 | 0.00 | 0.24 | 0.24 | 72 | 1013.7 | |
| 20260903231723 | 83 | 0.0 | 0.0 | 0.00 | 0.24 | 0.24 | 72 | 1013.8 | |
| 20260903231619 | 83 | 0.0 | 0.0 | 0.00 | 0.24 | 0.24 | 72 | 1013.7 | |
| 20260903231530 | 83 | 0.0 | 0.0 | 0.00 | 0.24 | 0.24 | 72 | 1013.7 | |
| 20260903231426 | 83 | 0.0 | 0.0 | 0.00 | 0.24 | 0.24 | 72 | 1013.6 | |
| 20260903231321 | 83 | 0.0 | 0.0 | 0.00 | 0.24 | 0.24 | 72 | 1013.6 | |
| 20260903231217 | 83 | 0.0 | 0.0 | 0.00 | 0.24 | 0.24 | 71 | 1013.7 | |
| 20260903231128 | 84 | 0.0 | 0.0 | 0.00 | 0.24 | 0.24 | 71 | 1013.9 | |
| 20260903231024 | 84 | 0.0 | 0.0 | 0.00 | 0.24 | 0.24 | 72 | 1013.8 | |
| 20260903230919 | 84 | 0.0 | 0.0 | 0.00 | 0.24 | 0.24 | 71 | 1013.8 | |
| 20260903230831 | 84 | 0.0 | 0.0 | 0.00 | 0.24 | 0.24 | 71 | 1013.8 | |
| 20260903230727 | 84 | 0.0 | 0.0 | 0.00 | 0.24 | 0.24 | 71 | 1013.7 | |
| 20260903230622 | 84 | 244 | 0.0 | 1.0 | 0.00 | 0.24 | 0.24 | 71 | 1013.7 |
| 20260903230518 | 84 | 0.0 | 0.0 | 0.00 | 0.24 | 0.24 | 71 | 1013.7 | |
| 20260903230429 | 84 | 244 | 0.0 | 1.0 | 0.00 | 0.24 | 0.24 | 71 | 1013.8 |
| 20260903230325 | 84 | 243 | 1.0 | 1.0 | 0.00 | 0.24 | 0.24 | 71 | 1013.9 |
| 20260903230240 | 85 | 243 | 0.0 | 1.0 | 0.00 | 0.24 | 0.24 | 71 | 1013.9 |
| 20260903230116 | 85 | 244 | 0.0 | 1.0 | 0.00 | 0.24 | 0.24 | 71 | 1013.7 |
| 20260903230027 | 85 | 244 | 0.0 | 1.0 | 0.00 | 0.24 | 0.24 | 71 | 1013.8 |
| 20260903225923 | 85 | 244 | 0.0 | 1.0 | 0.00 | 0.24 | 0.24 | 71 | 1013.8 |
| 20260903225819 | 85 | 0.0 | 0.0 | 0.00 | 0.24 | 0.24 | 71 | 1013.8 | |
| 20260903225731 | 85 | 0.0 | 0.0 | 0.00 | 0.24 | 0.24 | 71 | 1013.8 | |
| 20260903225626 | 85 | 0.0 | 0.0 | 0.00 | 0.24 | 0.24 | 71 | 1013.9 | |
| 20260903225521 | 85 | 0.0 | 0.0 | 0.00 | 0.24 | 0.24 | 70 | 1013.9 | |
| 20260903225417 | 85 | 0.0 | 0.0 | 0.00 | 0.24 | 0.24 | 70 | 1013.8 | |
| 20260903225329 | 85 | 0.0 | 0.0 | 0.00 | 0.24 | 0.24 | 71 | 1014.0 | |
| 20260903225244 | 85 | 0.0 | 0.0 | 0.00 | 0.24 | 0.24 | 70 | 1013.9 | |
| 20260903225120 | 85 | 0.0 | 0.0 | 0.00 | 0.24 | 0.24 | 71 | 1014.0 | |
| 20260903225015 | 85 | 0.0 | 0.0 | 0.00 | 0.24 | 0.24 | 71 | 1013.8 | |
| 20260903224927 | 85 | 243 | 0.0 | 1.0 | 0.00 | 0.24 | 0.24 | 70 | 1013.9 |
| 20260903224822 | 85 | 243 | 0.0 | 1.0 | 0.00 | 0.24 | 0.24 | 70 | 1013.9 |
| 20260903224718 | 85 | 243 | 0.0 | 1.0 | 0.00 | 0.24 | 0.24 | 69 | 1013.8 |
| 20260903224650 | 85 | 0.0 | 0.0 | 0.00 | 0.24 | 0.24 | 69 | 1013.9 | |
| 20260903224525 | 85 | 243 | 0.0 | 1.0 | 0.00 | 0.24 | 0.24 | 70 | 1013.7 |
| 20260903224421 | 85 | 0.0 | 0.0 | 0.00 | 0.24 | 0.24 | 70 | 1013.7 | |
| 20260903224317 | 85 | 0.0 | 0.0 | 0.00 | 0.24 | 0.24 | 70 | 1013.8 | |
| 20260903224228 | 85 | 0.0 | 0.0 | 0.00 | 0.24 | 0.24 | 70 | 1013.7 | |
| 20260903224124 | 85 | 0.0 | 0.0 | 0.00 | 0.24 | 0.24 | 69 | 1013.7 | |
| 20260903224019 | 85 | 0.0 | 0.0 | 0.00 | 0.24 | 0.24 | 69 | 1013.7 | |
| 20260903223931 | 86 | 244 | 0.0 | 1.0 | 0.00 | 0.24 | 0.24 | 68 | 1013.9 |
| 20260903223826 | 86 | 244 | 0.0 | 1.0 | 0.00 | 0.24 | 0.24 | 70 | 1013.7 |
| 20260903223742 | 86 | 0.0 | 0.0 | 0.00 | 0.24 | 0.24 | 69 | 1013.8 | |
| 20260903223618 | 86 | 0.0 | 0.0 | 0.00 | 0.24 | 0.24 | 70 | 1013.8 | |
| 20260903223529 | 86 | 0.0 | 0.0 | 0.00 | 0.24 | 0.24 | 70 | 1013.8 | |
| 20260903223425 | 86 | 0.0 | 0.0 | 0.00 | 0.24 | 0.24 | 69 | 1013.8 | |
| 20260903223320 | 86 | 0.0 | 0.0 | 0.00 | 0.24 | 0.24 | 69 | 1013.8 | |
| 20260903223216 | 86 | 0.0 | 0.0 | 0.00 | 0.24 | 0.24 | 69 | 1013.9 | |
| 20260903223128 | 86 | 0.0 | 0.0 | 0.00 | 0.24 | 0.24 | 69 | 1014.0 | |
| 20260903223044 | 86 | 0.0 | 0.0 | 0.00 | 0.24 | 0.24 | 69 | 1014.0 | |
| 20260903222919 | 86 | 0.0 | 0.0 | 0.00 | 0.24 | 0.24 | 69 | 1014.1 | |
| 20260903222831 | 87 | 0.0 | 0.0 | 0.00 | 0.24 | 0.24 | 69 | 1013.8 | |
| 20260903222726 | 87 | 0.0 | 0.0 | 0.00 | 0.24 | 0.24 | 68 | 1014.0 | |
| 20260903222622 | 87 | 0.0 | 0.0 | 0.00 | 0.24 | 0.24 | 69 | 1014.0 | |
| 20260903222517 | 87 | 0.0 | 0.0 | 0.00 | 0.24 | 0.24 | 68 | 1014.0 | |
| 20260903222429 | 87 | 0.0 | 0.0 | 0.00 | 0.24 | 0.24 | 69 | 1013.9 | |
| 20260903222325 | 87 | 0.0 | 0.0 | 0.00 | 0.24 | 0.24 | 68 | 1014.0 | |
| 20260903222220 | 87 | 0.0 | 0.0 | 0.00 | 0.24 | 0.24 | 68 | 1013.9 | |
| 20260903222115 | 87 | 0.0 | 0.0 | 0.00 | 0.24 | 0.24 | 69 | 1013.9 | |
| 20260903222027 | 87 | 0.0 | 0.0 | 0.00 | 0.24 | 0.24 | 69 | 1014.0 | |
| 20260903221922 | 87 | 0.0 | 0.0 | 0.00 | 0.24 | 0.24 | 69 | 1014.0 | |
| 20260903221818 | 87 | 0.0 | 0.0 | 0.00 | 0.24 | 0.24 | 68 | 1014.0 | |
| 20260903221729 | 87 | 0.0 | 0.0 | 0.00 | 0.24 | 0.24 | 68 | 1014.2 | |
| 20260903221625 | 87 | 0.0 | 0.0 | 0.00 | 0.24 | 0.24 | 68 | 1014.2 | |
| 20260903221521 | 87 | 0.0 | 0.0 | 0.00 | 0.24 | 0.24 | 68 | 1013.9 | |
| 20260903221416 | 87 | 0.0 | 0.0 | 0.00 | 0.24 | 0.24 | 68 | 1014.0 | |
| 20260903221328 | 88 | 244 | 0.0 | 1.0 | 0.00 | 0.24 | 0.24 | 68 | 1013.9 |
| 20260903221224 | 88 | 0.0 | 0.0 | 0.00 | 0.24 | 0.24 | 68 | 1014.0 | |
| 20260903221119 | 88 | 0.0 | 0.0 | 0.00 | 0.24 | 0.24 | 67 | 1013.9 | |
| 20260903221031 | 88 | 0.0 | 0.0 | 0.00 | 0.24 | 0.24 | 66 | 1013.9 | |
| 20260903220926 | 88 | 0.0 | 0.0 | 0.00 | 0.24 | 0.24 | 67 | 1014.0 | |
| 20260903220822 | 88 | 0.0 | 0.0 | 0.00 | 0.24 | 0.24 | 67 | 1014.0 | |
| 20260903220717 | 88 | 0.0 | 0.0 | 0.00 | 0.24 | 0.24 | 68 | 1014.0 | |
| 20260903220629 | 88 | 0.0 | 0.0 | 0.00 | 0.24 | 0.24 | 68 | 1014.0 | |
| 20260903220525 | 88 | 0.0 | 0.0 | 0.00 | 0.24 | 0.24 | 67 | 1014.1 | |
| 20260903220420 | 88 | 0.0 | 0.0 | 0.00 | 0.24 | 0.24 | 67 | 1014.2 | |
| 20260903220336 | 87 | 0.0 | 0.0 | 0.00 | 0.24 | 0.24 | 67 | 1013.9 | |
| 20260903220228 | 88 | 0.0 | 0.0 | 0.00 | 0.24 | 0.24 | 65 | 1013.8 | |
| 20260903220143 | 88 | 244 | 1.0 | 1.0 | 0.00 | 0.24 | 0.24 | 63 | 1014.0 |
| 20260903220019 | 87 | 245 | 1.0 | 1.0 | 0.00 | 0.24 | 0.24 | 64 | 1013.8 |
| 20260903215931 | 87 | 244 | 0.0 | 1.0 | 0.00 | 0.24 | 0.24 | 67 | 1013.7 |
| 20260903215826 | 88 | 0.0 | 0.0 | 0.00 | 0.24 | 0.24 | 67 | 1013.8 | |
| 20260903215722 | 87 | 244 | 0.0 | 1.0 | 0.00 | 0.24 | 0.24 | 66 | 1013.9 |
| 20260903215617 | 88 | 244 | 0.0 | 1.0 | 0.00 | 0.24 | 0.24 | 65 | 1013.9 |
| 20260903215529 | 88 | 245 | 0.0 | 1.0 | 0.00 | 0.24 | 0.24 | 65 | 1013.9 |
| 20260903215425 | 88 | 245 | 1.0 | 1.0 | 0.00 | 0.24 | 0.24 | 64 | 1013.8 |
| 20260903215320 | 88 | 245 | 0.0 | 1.0 | 0.00 | 0.24 | 0.24 | 66 | 1013.9 |
| 20260903215216 | 88 | 0.0 | 0.0 | 0.00 | 0.24 | 0.24 | 66 | 1013.9 | |
| 20260903215128 | 88 | 0.0 | 0.0 | 0.00 | 0.24 | 0.24 | 66 | 1013.9 | |
| 20260903215043 | 88 | 0.0 | 0.0 | 0.00 | 0.24 | 0.24 | 65 | 1013.9 | |
| 20260903214919 | 88 | 245 | 0.0 | 1.0 | 0.00 | 0.24 | 0.24 | 66 | 1013.9 |
| 20260903214830 | 88 | 0.0 | 0.0 | 0.00 | 0.24 | 0.24 | 65 | 1013.8 | |
| 20260903214725 | 88 | 245 | 0.0 | 1.0 | 0.00 | 0.24 | 0.24 | 63 | 1013.9 |
| 20260903214621 | 88 | 245 | 0.0 | 1.0 | 0.00 | 0.24 | 0.24 | 61 | 1014.0 |
| 20260903214517 | 89 | 245 | 0.0 | 1.0 | 0.00 | 0.24 | 0.24 | 62 | 1013.8 |
| 20260903214428 | 89 | 245 | 0.0 | 1.0 | 0.00 | 0.24 | 0.24 | 65 | 1013.6 |
| 20260903214324 | 89 | 245 | 0.0 | 1.0 | 0.00 | 0.24 | 0.24 | 65 | 1013.7 |
| 20260903214239 | 89 | 0.0 | 0.0 | 0.00 | 0.24 | 0.24 | 64 | 1013.7 | |
| 20260903214115 | 89 | 0.0 | 0.0 | 0.00 | 0.24 | 0.24 | 65 | 1013.7 | |
| 20260903214027 | 89 | 245 | 0.0 | 1.0 | 0.00 | 0.24 | 0.24 | 63 | 1013.7 |
| 20260903213922 | 89 | 245 | 1.0 | 1.0 | 0.00 | 0.24 | 0.24 | 62 | 1013.8 |
| 20260903213838 | 89 | 246 | 0.0 | 1.0 | 0.00 | 0.24 | 0.24 | 61 | 1013.9 |
| 20260903213730 | 89 | 245 | 0.0 | 1.0 | 0.00 | 0.24 | 0.24 | 58 | 1013.7 |
| 20260903213645 | 89 | 246 | 1.0 | 2.0 | 0.00 | 0.24 | 0.24 | 59 | 1013.6 |
| 20260903213521 | 89 | 246 | 1.0 | 1.0 | 0.00 | 0.24 | 0.24 | 66 | 1013.6 |
| 20260903213416 | 89 | 246 | 0.0 | 1.0 | 0.00 | 0.24 | 0.24 | 65 | 1013.6 |
| 20260903213408 | 89 | 246 | 0.0 | 1.0 | 0.00 | 0.24 | 0.24 | 63 | 1013.8 |
| 20260903213244 | 89 | 246 | 0.0 | 1.0 | 0.00 | 0.24 | 0.24 | 59 | 1013.7 |
| 20260903213119 | 89 | 247 | 2.0 | 3.0 | 0.00 | 0.24 | 0.24 | 60 | 1013.9 |
| 20260903213031 | 89 | 253 | 1.0 | 2.0 | 0.00 | 0.24 | 0.24 | 59 | 1013.8 |
| 20260903212927 | 89 | 277 | 2.0 | 2.0 | 0.00 | 0.24 | 0.24 | 59 | 1013.9 |
| 20260903212822 | 89 | 277 | 1.0 | 3.0 | 0.00 | 0.24 | 0.24 | 62 | 1013.7 |
| 20260903212718 | 89 | 295 | 2.0 | 3.0 | 0.00 | 0.24 | 0.24 | 62 | 1013.6 |
| 20260903212629 | 89 | 256 | 2.0 | 3.0 | 0.00 | 0.24 | 0.24 | 62 | 1013.7 |
| 20260903212525 | 89 | 252 | 0.0 | 1.0 | 0.00 | 0.24 | 0.24 | 62 | 1013.7 |
| 20260903212421 | 89 | 251 | 1.0 | 2.0 | 0.00 | 0.24 | 0.24 | 60 | 1013.9 |
| 20260903212316 | 88 | 258 | 3.0 | 4.0 | 0.00 | 0.24 | 0.24 | 59 | 1013.8 |
| 20260903212228 | 88 | 248 | 2.0 | 4.0 | 0.00 | 0.24 | 0.24 | 61 | 1013.7 |
| 20260903212144 | 88 | 239 | 2.0 | 2.0 | 0.00 | 0.24 | 0.24 | 65 | 1013.7 |
| 20260903212019 | 88 | 236 | 1.0 | 1.0 | 0.00 | 0.24 | 0.24 | 66 | 1013.7 |
| 20260903211931 | 88 | 232 | 1.0 | 1.0 | 0.00 | 0.24 | 0.24 | 63 | 1013.9 |
| 20260903211827 | 88 | 234 | 1.0 | 2.0 | 0.00 | 0.24 | 0.24 | 61 | 1013.9 |
| 20260903211722 | 87 | 235 | 1.0 | 2.0 | 0.00 | 0.24 | 0.24 | 60 | 1013.9 |
| 20260903211618 | 87 | 231 | 1.0 | 3.0 | 0.00 | 0.24 | 0.24 | 60 | 1013.7 |
| 20260903211550 | 87 | 231 | 1.0 | 2.0 | 0.00 | 0.24 | 0.24 | 61 | 1013.9 |
| 20260903211425 | 87 | 232 | 1.0 | 2.0 | 0.00 | 0.24 | 0.24 | 61 | 1013.7 |
| 20260903211340 | 87 | 254 | 2.0 | 3.0 | 0.00 | 0.24 | 0.24 | 60 | 1013.7 |
| 20260903211216 | 87 | 252 | 3.0 | 4.0 | 0.00 | 0.24 | 0.24 | 58 | 1013.7 |
| 20260903211128 | 87 | 228 | 4.0 | 7.0 | 0.00 | 0.24 | 0.24 | 58 | 1014.0 |
| 20260903211023 | 87 | 239 | 3.0 | 4.0 | 0.00 | 0.24 | 0.24 | 59 | 1013.8 |
| 20260903210919 | 87 | 274 | 2.0 | 4.0 | 0.00 | 0.24 | 0.24 | 59 | 1013.8 |
| 20260903210831 | 87 | 262 | 3.0 | 4.0 | 0.00 | 0.24 | 0.24 | 59 | 1013.8 |
| 20260903210726 | 87 | 309 | 1.0 | 2.0 | 0.00 | 0.24 | 0.24 | 61 | 1013.8 |
| 20260903210642 | 87 | 232 | 1.0 | 2.0 | 0.00 | 0.24 | 0.24 | 59 | 1013.8 |
| 20260903210517 | 87 | 232 | 1.0 | 4.0 | 0.00 | 0.24 | 0.24 | 57 | 1013.8 |
| 20260903210429 | 87 | 235 | 3.0 | 6.0 | 0.00 | 0.24 | 0.24 | 59 | 1013.9 |
| 20260903210345 | 87 | 242 | 3.0 | 4.0 | 0.00 | 0.24 | 0.24 | 59 | 1013.9 |
| 20260903210220 | 87 | 250 | 1.0 | 1.0 | 0.00 | 0.24 | 0.24 | 59 | 1013.9 |
| 20260903210156 | 87 | 233 | 4.0 | 9.0 | 0.00 | 0.24 | 0.24 | 60 | 1013.8 |
| 20260903210047 | 87 | 234 | 3.0 | 6.0 | 0.00 | 0.24 | 0.24 | 59 | 1014.0 |
| 20260903205923 | 87 | 243 | 4.0 | 6.0 | 0.00 | 0.24 | 0.24 | 60 | 1014.0 |
| 20260903205819 | 87 | 245 | 2.0 | 3.0 | 0.00 | 0.24 | 0.24 | 60 | 1013.9 |
| 20260903205730 | 87 | 247 | 3.0 | 6.0 | 0.00 | 0.24 | 0.24 | 61 | 1014.1 |
| 20260903205626 | 87 | 252 | 3.0 | 6.0 | 0.00 | 0.24 | 0.24 | 61 | 1014.0 |
| 20260903205521 | 87 | 297 | 5.0 | 7.0 | 0.00 | 0.24 | 0.24 | 60 | 1014.0 |
| 20260903205417 | 87 | 255 | 5.0 | 8.0 | 0.00 | 0.24 | 0.24 | 60 | 1014.1 |
| 20260903205328 | 87 | 245 | 2.0 | 4.0 | 0.00 | 0.24 | 0.24 | 64 | 1014.0 |
| 20260903205224 | 86 | 238 | 2.0 | 6.0 | 0.00 | 0.24 | 0.24 | 61 | 1014.0 |
| 20260903205140 | 86 | 241 | 3.0 | 6.0 | 0.00 | 0.24 | 0.24 | 59 | 1014.0 |
| 20260903205035 | 86 | 241 | 2.0 | 4.0 | 0.00 | 0.24 | 0.24 | 62 | 1014.1 |
| 20260903204927 | 86 | 227 | 4.0 | 6.0 | 0.00 | 0.24 | 0.24 | 60 | 1014.0 |
| 20260903204822 | 86 | 241 | 3.0 | 4.0 | 0.00 | 0.24 | 0.24 | 63 | 1014.0 |
| 20260903204718 | 86 | 243 | 1.0 | 2.0 | 0.00 | 0.24 | 0.24 | 65 | 1013.9 |
| 20260903204630 | 86 | 237 | 1.0 | 1.0 | 0.00 | 0.24 | 0.24 | 64 | 1014.0 |
| 20260903204525 | 86 | 228 | 2.0 | 3.0 | 0.00 | 0.24 | 0.24 | 65 | 1014.0 |
| 20260903204420 | 86 | 245 | 1.0 | 2.0 | 0.00 | 0.24 | 0.24 | 64 | 1013.7 |
| 20260903204316 | 86 | 284 | 1.0 | 2.0 | 0.00 | 0.24 | 0.24 | 64 | 1013.8 |
| 20260903204248 | 86 | 229 | 2.0 | 3.0 | 0.00 | 0.24 | 0.24 | 63 | 1014.0 |
| 20260903204123 | 86 | 187 | 2.0 | 3.0 | 0.00 | 0.24 | 0.24 | 64 | 1013.9 |
| 20260903204038 | 86 | 193 | 2.0 | 6.0 | 0.00 | 0.24 | 0.24 | 63 | 1014.0 |
| 20260903203929 | 86 | 225 | 2.0 | 4.0 | 0.00 | 0.24 | 0.24 | 62 | 1013.8 |
| 20260903203905 | 86 | 261 | 2.0 | 4.0 | 0.00 | 0.24 | 0.24 | 63 | 1013.8 |
| 20260903203721 | 85 | 259 | 2.0 | 4.0 | 0.00 | 0.24 | 0.24 | 64 | 1013.8 |
| 20260903203616 | 85 | 243 | 2.0 | 3.0 | 0.00 | 0.24 | 0.24 | 64 | 1013.8 |
| 20260903203528 | 85 | 244 | 1.0 | 4.0 | 0.00 | 0.24 | 0.24 | 63 | 1013.7 |
| 20260903203423 | 85 | 249 | 3.0 | 6.0 | 0.00 | 0.24 | 0.24 | 63 | 1013.7 |
| 20260903203339 | 85 | 190 | 2.0 | 3.0 | 0.00 | 0.24 | 0.24 | 65 | 1013.6 |
| 20260903203231 | 85 | 245 | 1.0 | 2.0 | 0.00 | 0.24 | 0.24 | 64 | 1013.6 |
| 20260903203126 | 85 | 225 | 1.0 | 2.0 | 0.00 | 0.24 | 0.24 | 64 | 1013.7 |
| 20260903203021 | 85 | 256 | 2.0 | 3.0 | 0.00 | 0.24 | 0.24 | 62 | 1013.7 |
| 20260903202937 | 85 | 242 | 4.0 | 4.0 | 0.00 | 0.24 | 0.24 | 63 | 1013.9 |
| 20260903202829 | 85 | 270 | 3.0 | 6.0 | 0.00 | 0.24 | 0.24 | 65 | 1013.8 |
| 20260903202724 | 85 | 248 | 2.0 | 2.0 | 0.00 | 0.24 | 0.24 | 65 | 1013.8 |
| 20260903202640 | 85 | 240 | 1.0 | 1.0 | 0.00 | 0.24 | 0.24 | 64 | 1013.7 |
| 20260903202535 | 85 | 233 | 1.0 | 3.0 | 0.00 | 0.24 | 0.24 | 64 | 1013.9 |
| 20260903202427 | 85 | 235 | 1.0 | 3.0 | 0.00 | 0.24 | 0.24 | 64 | 1013.8 |
| 20260903202322 | 85 | 240 | 3.0 | 3.0 | 0.00 | 0.24 | 0.24 | 65 | 1013.9 |
| 20260903202218 | 85 | 273 | 2.0 | 3.0 | 0.00 | 0.24 | 0.24 | 65 | 1013.9 |
| 20260903202130 | 85 | 313 | 2.0 | 3.0 | 0.00 | 0.24 | 0.24 | 65 | 1013.9 |
| 20260903202045 | 85 | 299 | 2.0 | 3.0 | 0.00 | 0.24 | 0.24 | 66 | 1013.9 |
| 20260903201941 | 85 | 260 | 4.0 | 4.0 | 0.00 | 0.24 | 0.24 | 64 | 1013.8 |
| 20260903201816 | 85 | 264 | 2.0 | 6.0 | 0.00 | 0.24 | 0.24 | 64 | 1013.9 |
| 20260903201728 | 85 | 245 | 2.0 | 4.0 | 0.00 | 0.24 | 0.24 | 64 | 1013.8 |
| 20260903201623 | 85 | 250 | 3.0 | 4.0 | 0.00 | 0.24 | 0.24 | 63 | 1013.8 |
| 20260903201519 | 85 | 275 | 2.0 | 2.0 | 0.00 | 0.24 | 0.24 | 64 | 1013.7 |
| 20260903201431 | 85 | 227 | 2.0 | 3.0 | 0.00 | 0.24 | 0.24 | 65 | 1013.9 |
| 20260903201326 | 84 | 338 | 1.0 | 3.0 | 0.00 | 0.24 | 0.24 | 63 | 1013.8 |
| 20260903201222 | 84 | 263 | 3.0 | 6.0 | 0.00 | 0.24 | 0.24 | 63 | 1013.8 |
| 20260903201117 | 84 | 249 | 2.0 | 3.0 | 0.00 | 0.24 | 0.24 | 63 | 1013.9 |
| 20260903201029 | 84 | 272 | 2.0 | 4.0 | 0.00 | 0.24 | 0.24 | 64 | 1013.8 |
| 20260903200924 | 84 | 258 | 3.0 | 4.0 | 0.00 | 0.24 | 0.24 | 64 | 1013.8 |
| 20260903200820 | 84 | 232 | 1.0 | 3.0 | 0.00 | 0.24 | 0.24 | 64 | 1013.8 |
| 20260903200715 | 84 | 230 | 0.0 | 1.0 | 0.00 | 0.24 | 0.24 | 63 | 1013.8 |
| 20260903200628 | 84 | 231 | 3.0 | 6.0 | 0.00 | 0.24 | 0.24 | 63 | 1013.8 |
| 20260903200522 | 84 | 270 | 4.0 | 8.0 | 0.00 | 0.24 | 0.24 | 64 | 1013.8 |
| 20260903200418 | 84 | 244 | 2.0 | 4.0 | 0.00 | 0.24 | 0.24 | 65 | 1014.0 |
| 20260903200330 | 84 | 252 | 3.0 | 4.0 | 0.00 | 0.24 | 0.24 | 67 | 1014.1 |
| 20260903200225 | 84 | 251 | 2.0 | 4.0 | 0.00 | 0.24 | 0.24 | 66 | 1013.9 |
| 20260903200121 | 84 | 214 | 2.0 | 4.0 | 0.00 | 0.24 | 0.24 | 65 | 1013.9 |
| 20260903200016 | 84 | 198 | 2.0 | 3.0 | 0.00 | 0.24 | 0.24 | 67 | 1013.8 |
| 20260903195928 | 84 | 235 | 2.0 | 2.0 | 0.00 | 0.24 | 0.24 | 66 | 1013.9 |
| 20260903195824 | 84 | 234 | 2.0 | 3.0 | 0.00 | 0.24 | 0.24 | 66 | 1014.1 |
| 20260903195759 | 84 | 167 | 2.0 | 2.0 | 0.00 | 0.24 | 0.24 | 65 | 1014.1 |
| 20260903195631 | 84 | 222 | 2.0 | 4.0 | 0.00 | 0.24 | 0.24 | 65 | 1013.9 |
| 20260903195526 | 84 | 189 | 3.0 | 7.0 | 0.00 | 0.24 | 0.24 | 65 | 1013.9 |
| 20260903195442 | 84 | 209 | 2.0 | 6.0 | 0.00 | 0.24 | 0.24 | 65 | 1014.0 |
| 20260903195318 | 84 | 250 | 2.0 | 4.0 | 0.00 | 0.24 | 0.24 | 64 | 1014.0 |
| 20260903195229 | 84 | 236 | 2.0 | 4.0 | 0.00 | 0.24 | 0.24 | 64 | 1014.1 |
| 20260903195125 | 84 | 237 | 3.0 | 3.0 | 0.00 | 0.24 | 0.24 | 64 | 1013.9 |
| 20260903195021 | 84 | 303 | 4.0 | 6.0 | 0.00 | 0.24 | 0.24 | 63 | 1014.0 |
| 20260903194916 | 84 | 251 | 4.0 | 6.0 | 0.00 | 0.24 | 0.24 | 64 | 1014.0 |
| 20260903194828 | 84 | 249 | 4.0 | 6.0 | 0.00 | 0.24 | 0.24 | 65 | 1014.0 |
| 20260903194723 | 84 | 241 | 2.0 | 3.0 | 0.00 | 0.24 | 0.24 | 66 | 1013.9 |
| 20260903194659 | 84 | 234 | 1.0 | 2.0 | 0.00 | 0.24 | 0.24 | 63 | 1013.9 |
| 20260903194550 | 84 | 233 | 2.0 | 8.0 | 0.00 | 0.24 | 0.24 | 64 | 1013.9 |
| 20260903194446 | 84 | 228 | 2.0 | 6.0 | 0.00 | 0.24 | 0.24 | 65 | 1014.0 |
| 20260903194322 | 84 | 204 | 2.0 | 3.0 | 0.00 | 0.24 | 0.24 | 63 | 1014.1 |
| 20260903194218 | 84 | 247 | 3.0 | 6.0 | 0.00 | 0.24 | 0.24 | 64 | 1014.1 |
| 20260903194129 | 84 | 224 | 2.0 | 4.0 | 0.00 | 0.24 | 0.24 | 64 | 1014.0 |
| 20260903194025 | 84 | 186 | 3.0 | 7.0 | 0.00 | 0.24 | 0.24 | 63 | 1014.1 |
| 20260903193940 | 84 | 252 | 4.0 | 7.0 | 0.00 | 0.24 | 0.24 | 64 | 1014.1 |
| 20260903193815 | 84 | 236 | 3.0 | 6.0 | 0.00 | 0.24 | 0.24 | 64 | 1014.1 |
| 20260903193727 | 84 | 224 | 0.0 | 1.0 | 0.00 | 0.24 | 0.24 | 63 | 1014.2 |
| 20260903193622 | 84 | 235 | 2.0 | 4.0 | 0.00 | 0.24 | 0.24 | 64 | 1014.2 |
| 20260903193518 | 84 | 220 | 1.0 | 2.0 | 0.00 | 0.24 | 0.24 | 65 | 1014.0 |
| 20260903193430 | 84 | 230 | 2.0 | 2.0 | 0.00 | 0.24 | 0.24 | 65 | 1014.3 |
| 20260903193325 | 84 | 220 | 3.0 | 6.0 | 0.00 | 0.24 | 0.24 | 63 | 1014.1 |
| 20260903193241 | 84 | 233 | 3.0 | 6.0 | 0.00 | 0.24 | 0.24 | 63 | 1014.1 |
| 20260903193117 | 84 | 256 | 5.0 | 8.0 | 0.00 | 0.24 | 0.24 | 63 | 1014.2 |
| 20260903193028 | 84 | 232 | 2.0 | 6.0 | 0.00 | 0.24 | 0.24 | 63 | 1014.1 |
| 20260903192924 | 84 | 242 | 3.0 | 6.0 | 0.00 | 0.24 | 0.24 | 66 | 1014.2 |
| 20260903192839 | 84 | 307 | 3.0 | 6.0 | 0.00 | 0.24 | 0.24 | 63 | 1014.1 |
| 20260903192731 | 84 | 253 | 4.0 | 9.0 | 0.00 | 0.24 | 0.24 | 65 | 1014.2 |
| 20260903192626 | 84 | 227 | 2.0 | 4.0 | 0.00 | 0.24 | 0.24 | 67 | 1014.0 |
| 20260903192522 | 84 | 196 | 2.0 | 2.0 | 0.00 | 0.24 | 0.24 | 66 | 1014.1 |
| 20260903192438 | 84 | 238 | 1.0 | 2.0 | 0.00 | 0.24 | 0.24 | 65 | 1014.1 |
| 20260903192329 | 84 | 245 | 2.0 | 2.0 | 0.00 | 0.24 | 0.24 | 64 | 1014.2 |
| 20260903192237 | 84 | 245 | 3.0 | 3.0 | 0.00 | 0.24 | 0.24 | 64 | 1014.0 |
| 20260903192121 | 84 | 283 | 5.0 | 8.0 | 0.00 | 0.24 | 0.24 | 64 | 1014.2 |
| 20260903192016 | 84 | 271 | 2.0 | 4.0 | 0.00 | 0.24 | 0.24 | 65 | 1014.2 |
| 20260903191928 | 84 | 250 | 1.0 | 2.0 | 0.00 | 0.24 | 0.24 | 65 | 1014.1 |
| 20260903191823 | 84 | 245 | 1.0 | 2.0 | 0.00 | 0.24 | 0.24 | 66 | 1014.2 |
| 20260903191739 | 84 | 235 | 2.0 | 6.0 | 0.00 | 0.24 | 0.24 | 64 | 1014.2 |
| 20260903191631 | 84 | 262 | 5.0 | 7.0 | 0.00 | 0.24 | 0.24 | 66 | 1014.3 |
| 20260903191546 | 84 | 248 | 3.0 | 4.0 | 0.00 | 0.24 | 0.24 | 67 | 1014.2 |
| 20260903191421 | 83 | 259 | 1.0 | 2.0 | 0.00 | 0.24 | 0.24 | 66 | 1014.3 |
| 20260903191317 | 83 | 254 | 3.0 | 8.0 | 0.00 | 0.24 | 0.24 | 68 | 1014.3 |
| 20260903191228 | 83 | 226 | 2.0 | 7.0 | 0.00 | 0.24 | 0.24 | 67 | 1014.4 |
| 20260903191124 | 83 | 257 | 2.0 | 2.0 | 0.00 | 0.24 | 0.24 | 65 | 1014.4 |
| 20260903191059 | 83 | 257 | 2.0 | 4.0 | 0.00 | 0.24 | 0.24 | 65 | 1014.3 |
| 20260903190915 | 83 | 247 | 3.0 | 6.0 | 0.00 | 0.24 | 0.24 | 65 | 1014.3 |
| 20260903190827 | 83 | 239 | 3.0 | 6.0 | 0.00 | 0.24 | 0.24 | 66 | 1014.5 |
| 20260903190723 | 83 | 190 | 1.0 | 2.0 | 0.00 | 0.24 | 0.24 | 68 | 1014.4 |
| 20260903190618 | 83 | 155 | 1.0 | 3.0 | 0.00 | 0.24 | 0.24 | 67 | 1014.4 |
| 20260903190530 | 83 | 208 | 2.0 | 3.0 | 0.00 | 0.25 | 0.24 | 66 | 1014.4 |
| 20260903190425 | 83 | 270 | 5.0 | 7.0 | 0.00 | 0.25 | 0.24 | 66 | 1014.6 |
| 20260903190321 | 83 | 262 | 5.0 | 7.0 | 0.00 | 0.25 | 0.24 | 64 | 1014.4 |
| 20260903190216 | 83 | 231 | 2.0 | 4.0 | 0.00 | 0.25 | 0.24 | 63 | 1014.5 |
| 20260903190148 | 83 | 259 | 4.0 | 8.0 | 0.00 | 0.25 | 0.24 | 63 | 1014.5 |
| 20260903190024 | 83 | 215 | 4.0 | 6.0 | 0.00 | 0.25 | 0.24 | 64 | 1014.6 |
| 20260903185920 | 83 | 263 | 4.0 | 6.0 | 0.00 | 0.25 | 0.24 | 64 | 1014.6 |
| 20260903185815 | 83 | 240 | 4.0 | 7.0 | 0.00 | 0.25 | 0.24 | 64 | 1014.4 |
| 20260903185807 | 83 | 249 | 2.0 | 4.0 | 0.00 | 0.25 | 0.24 | 65 | 1014.6 |
| 20260903185622 | 83 | 233 | 4.0 | 7.0 | 0.00 | 0.25 | 0.24 | 65 | 1014.5 |
| 20260903185518 | 83 | 240 | 4.0 | 7.0 | 0.00 | 0.25 | 0.24 | 65 | 1014.6 |
| 20260903185430 | 83 | 233 | 4.0 | 7.0 | 0.00 | 0.25 | 0.24 | 67 | 1014.5 |
| 20260903185325 | 83 | 235 | 5.0 | 8.0 | 0.00 | 0.26 | 0.24 | 66 | 1014.4 |
| 20260903185221 | 83 | 226 | 2.0 | 7.0 | 0.00 | 0.26 | 0.24 | 66 | 1014.3 |
| 20260903185137 | 83 | 217 | 2.0 | 6.0 | 0.00 | 0.26 | 0.24 | 67 | 1014.6 |
| 20260903185028 | 83 | 274 | 1.0 | 2.0 | 0.00 | 0.26 | 0.24 | 67 | 1014.6 |
| 20260903184924 | 83 | 249 | 3.0 | 7.0 | 0.00 | 0.27 | 0.24 | 66 | 1014.7 |
| 20260903184819 | 83 | 225 | 4.0 | 6.0 | 0.00 | 0.27 | 0.24 | 66 | 1014.7 |
| 20260903184715 | 83 | 252 | 1.0 | 3.0 | 0.00 | 0.27 | 0.24 | 67 | 1014.7 |
| 20260903184626 | 83 | 234 | 3.0 | 4.0 | 0.00 | 0.27 | 0.24 | 65 | 1014.8 |
| 20260903184522 | 83 | 224 | 4.0 | 7.0 | 0.00 | 0.27 | 0.24 | 65 | 1014.8 |
| 20260903184418 | 83 | 202 | 4.0 | 6.0 | 0.00 | 0.28 | 0.24 | 65 | 1014.6 |
| 20260903184350 | 83 | 237 | 4.0 | 8.0 | 0.00 | 0.28 | 0.24 | 66 | 1014.7 |
| 20260903184305 | 83 | 237 | 4.0 | 9.0 | 0.00 | 0.28 | 0.24 | 64 | 1014.7 |
| 20260903184121 | 83 | 271 | 4.0 | 8.0 | 0.00 | 0.28 | 0.24 | 65 | 1014.7 |
| 20260903184016 | 83 | 258 | 4.0 | 6.0 | 0.00 | 0.28 | 0.24 | 65 | 1014.6 |
| 20260903183928 | 83 | 242 | 7.0 | 13.0 | 0.00 | 0.28 | 0.24 | 66 | 1014.7 |
| 20260903183824 | 83 | 245 | 6.0 | 10.0 | 0.00 | 0.28 | 0.24 | 66 | 1014.8 |
| 20260903183739 | 83 | 240 | 2.0 | 3.0 | 0.00 | 0.28 | 0.24 | 65 | 1014.8 |
| 20260903183631 | 83 | 244 | 3.0 | 4.0 | 0.00 | 0.28 | 0.24 | 66 | 1014.8 |
| 20260903183526 | 83 | 234 | 5.0 | 10.0 | 0.00 | 0.28 | 0.24 | 66 | 1014.9 |
| 20260903183421 | 83 | 240 | 4.0 | 7.0 | 0.00 | 0.28 | 0.24 | 67 | 1014.9 |
| 20260903183337 | 83 | 206 | 3.0 | 7.0 | 0.00 | 0.28 | 0.24 | 68 | 1015.0 |
| 20260903183308 | 83 | 238 | 6.0 | 9.0 | 0.00 | 0.28 | 0.24 | 68 | 1014.9 |
| 20260903183124 | 83 | 231 | 3.0 | 7.0 | 0.00 | 0.28 | 0.24 | 69 | 1014.9 |
| 20260903183020 | 83 | 228 | 3.0 | 6.0 | 0.00 | 0.28 | 0.24 | 68 | 1014.8 |
| 20260903182915 | 82 | 265 | 5.0 | 7.0 | 0.00 | 0.28 | 0.24 | 68 | 1014.9 |
| 20260903182827 | 82 | 240 | 6.0 | 10.0 | 0.00 | 0.28 | 0.24 | 68 | 1014.9 |
| 20260903182722 | 82 | 304 | 3.0 | 6.0 | 0.00 | 0.28 | 0.24 | 68 | 1014.8 |
| 20260903182618 | 82 | 246 | 7.0 | 9.0 | 0.00 | 0.28 | 0.24 | 68 | 1014.7 |
| 20260903182529 | 82 | 235 | 2.0 | 6.0 | 0.00 | 0.28 | 0.24 | 69 | 1014.9 |
| 20260903182425 | 82 | 260 | 3.0 | 6.0 | 0.00 | 0.28 | 0.24 | 67 | 1015.0 |
| 20260903182321 | 82 | 239 | 4.0 | 7.0 | 0.00 | 0.28 | 0.24 | 68 | 1015.0 |
| 20260903182216 | 82 | 228 | 3.0 | 8.0 | 0.00 | 0.28 | 0.24 | 70 | 1014.8 |
| 20260903182148 | 82 | 240 | 2.0 | 4.0 | 0.00 | 0.28 | 0.24 | 69 | 1015.0 |
| 20260903182023 | 82 | 253 | 5.0 | 8.0 | 0.00 | 0.28 | 0.24 | 68 | 1015.0 |
| 20260903181939 | 82 | 240 | 2.0 | 4.0 | 0.00 | 0.28 | 0.24 | 69 | 1015.0 |
| 20260903181851 | 82 | 247 | 5.0 | 10.0 | 0.00 | 0.28 | 0.24 | 69 | 1015.0 |
| 20260903181726 | 82 | 240 | 5.0 | 10.0 | 0.00 | 0.28 | 0.24 | 68 | 1015.2 |
| 20260903181622 | 82 | 237 | 4.0 | 6.0 | 0.00 | 0.28 | 0.24 | 68 | 1015.1 |
| 20260903181518 | 82 | 227 | 5.0 | 8.0 | 0.00 | 0.28 | 0.24 | 67 | 1015.1 |
| 20260903181429 | 82 | 230 | 6.0 | 9.0 | 0.00 | 0.28 | 0.24 | 68 | 1014.9 |
| 20260903181404 | 82 | 236 | 6.0 | 8.0 | 0.00 | 0.28 | 0.24 | 69 | 1015.0 |
| 20260903181219 | 82 | 236 | 4.0 | 6.0 | 0.00 | 0.28 | 0.24 | 70 | 1015.1 |
| 20260903181131 | 82 | 228 | 3.0 | 6.0 | 0.00 | 0.28 | 0.24 | 70 | 1015.1 |
| 20260903181107 | 82 | 197 | 1.0 | 4.0 | 0.00 | 0.28 | 0.24 | 72 | 1015.0 |
| 20260903180942 | 82 | 164 | 1.0 | 3.0 | 0.00 | 0.28 | 0.24 | 72 | 1015.0 |
| 20260903180818 | 82 | 197 | 3.0 | 4.0 | 0.00 | 0.28 | 0.24 | 72 | 1015.0 |
| 20260903180729 | 82 | 192 | 2.0 | 6.0 | 0.00 | 0.28 | 0.24 | 72 | 1015.0 |
| 20260903180625 | 82 | 158 | 2.0 | 3.0 | 0.00 | 0.28 | 0.24 | 72 | 1015.0 |
| 20260903180520 | 82 | 187 | 3.0 | 6.0 | 0.00 | 0.28 | 0.24 | 71 | 1015.0 |
| 20260903180416 | 82 | 237 | 4.0 | 8.0 | 0.00 | 0.28 | 0.24 | 71 | 1015.0 |
| 20260903180328 | 82 | 169 | 3.0 | 7.0 | 0.00 | 0.28 | 0.24 | 72 | 1014.9 |
| 20260903180223 | 82 | 217 | 2.0 | 4.0 | 0.00 | 0.28 | 0.24 | 72 | 1014.9 |
| 20260903180139 | 82 | 160 | 2.0 | 3.0 | 0.00 | 0.28 | 0.24 | 73 | 1015.0 |
| 20260903180030 | 82 | 156 | 2.0 | 4.0 | 0.00 | 0.28 | 0.24 | 74 | 1015.1 |
| 20260903175925 | 82 | 236 | 1.0 | 2.0 | 0.00 | 0.28 | 0.24 | 73 | 1015.1 |
| 20260903175821 | 82 | 233 | 2.0 | 3.0 | 0.00 | 0.28 | 0.24 | 73 | 1015.1 |
| 20260903175717 | 81 | 167 | 0.0 | 1.0 | 0.00 | 0.28 | 0.24 | 75 | 1015.0 |
| 20260903175628 | 81 | 167 | 1.0 | 2.0 | 0.00 | 0.28 | 0.24 | 74 | 1015.1 |
| 20260903175524 | 81 | 168 | 0.0 | 1.0 | 0.00 | 0.28 | 0.24 | 74 | 1015.2 |
| 20260903175419 | 81 | 169 | 2.0 | 3.0 | 0.00 | 0.28 | 0.24 | 74 | 1015.2 |
| 20260903175315 | 81 | 172 | 2.0 | 3.0 | 0.00 | 0.28 | 0.24 | 74 | 1015.0 |
| 20260903175227 | 81 | 238 | 1.0 | 1.0 | 0.00 | 0.28 | 0.24 | 73 | 1015.1 |
| 20260903175122 | 81 | 239 | 1.0 | 4.0 | 0.00 | 0.28 | 0.24 | 72 | 1015.2 |
| 20260903175018 | 81 | 237 | 1.0 | 3.0 | 0.00 | 0.28 | 0.24 | 72 | 1015.2 |
| 20260903174929 | 81 | 246 | 2.0 | 6.0 | 0.00 | 0.28 | 0.24 | 71 | 1015.3 |
| 20260903174825 | 81 | 236 | 4.0 | 7.0 | 0.00 | 0.28 | 0.24 | 71 | 1015.2 |
| 20260903174721 | 81 | 240 | 4.0 | 7.0 | 0.00 | 0.28 | 0.24 | 71 | 1015.2 |
| 20260903174636 | 81 | 231 | 2.0 | 3.0 | 0.00 | 0.28 | 0.24 | 71 | 1015.5 |
| 20260903174528 | 81 | 249 | 2.0 | 6.0 | 0.00 | 0.28 | 0.24 | 71 | 1015.3 |
| 20260903174423 | 81 | 244 | 4.0 | 8.0 | 0.00 | 0.28 | 0.24 | 71 | 1015.4 |
| 20260903174319 | 81 | 285 | 5.0 | 7.0 | 0.00 | 0.28 | 0.24 | 70 | 1015.3 |
| 20260903174231 | 81 | 281 | 5.0 | 8.0 | 0.00 | 0.28 | 0.24 | 70 | 1015.4 |
| 20260903174126 | 81 | 253 | 4.0 | 8.0 | 0.00 | 0.28 | 0.24 | 71 | 1015.5 |
| 20260903174021 | 81 | 251 | 4.0 | 7.0 | 0.00 | 0.28 | 0.24 | 71 | 1015.4 |
| 20260903173917 | 81 | 218 | 4.0 | 8.0 | 0.00 | 0.28 | 0.24 | 71 | 1015.2 |
| 20260903173909 | 81 | 226 | 2.0 | 4.0 | 0.00 | 0.28 | 0.24 | 71 | 1015.6 |
| 20260903173725 | 81 | 250 | 3.0 | 8.0 | 0.00 | 0.28 | 0.24 | 70 | 1015.6 |
| 20260903173620 | 81 | 237 | 5.0 | 7.0 | 0.00 | 0.28 | 0.24 | 70 | 1015.5 |
| 20260903173516 | 81 | 234 | 3.0 | 6.0 | 0.00 | 0.28 | 0.24 | 70 | 1015.6 |
| 20260903173428 | 81 | 289 | 3.0 | 7.0 | 0.00 | 0.28 | 0.24 | 70 | 1015.4 |
| 20260903173323 | 81 | 254 | 5.0 | 7.0 | 0.00 | 0.28 | 0.24 | 70 | 1015.5 |
| 20260903173219 | 81 | 248 | 6.0 | 8.0 | 0.00 | 0.28 | 0.24 | 71 | 1015.6 |
| 20260903173131 | 81 | 238 | 5.0 | 10.0 | 0.00 | 0.28 | 0.24 | 72 | 1015.5 |
| 20260903173026 | 81 | 268 | 3.0 | 7.0 | 0.00 | 0.28 | 0.24 | 72 | 1015.5 |
| 20260903172922 | 80 | 276 | 2.0 | 4.0 | 0.00 | 0.28 | 0.24 | 71 | 1015.5 |
| 20260903172817 | 80 | 291 | 4.0 | 8.0 | 0.00 | 0.28 | 0.24 | 71 | 1015.5 |
| 20260903172729 | 80 | 265 | 5.0 | 9.0 | 0.00 | 0.28 | 0.24 | 71 | 1015.7 |
| 20260903172625 | 81 | 236 | 3.0 | 6.0 | 0.00 | 0.28 | 0.24 | 70 | 1015.7 |
| 20260903172520 | 81 | 221 | 4.0 | 7.0 | 0.00 | 0.28 | 0.24 | 69 | 1015.6 |
| 20260903172416 | 81 | 238 | 7.0 | 15.0 | 0.00 | 0.28 | 0.24 | 70 | 1015.7 |
| 20260903172327 | 81 | 285 | 6.0 | 11.0 | 0.00 | 0.28 | 0.24 | 69 | 1015.5 |
| 20260903172223 | 81 | 226 | 5.0 | 11.0 | 0.00 | 0.28 | 0.24 | 71 | 1015.6 |
| 20260903172139 | 81 | 260 | 4.0 | 6.0 | 0.00 | 0.28 | 0.24 | 69 | 1015.8 |
| 20260903172110 | 81 | 218 | 5.0 | 9.0 | 0.00 | 0.28 | 0.24 | 70 | 1015.7 |
| 20260903171926 | 81 | 237 | 4.0 | 8.0 | 0.00 | 0.28 | 0.24 | 69 | 1015.7 |
| 20260903171821 | 81 | 225 | 6.0 | 10.0 | 0.00 | 0.28 | 0.24 | 72 | 1015.6 |
| 20260903171717 | 81 | 195 | 2.0 | 7.0 | 0.00 | 0.28 | 0.24 | 73 | 1015.7 |
| 20260903171649 | 81 | 183 | 1.0 | 3.0 | 0.00 | 0.28 | 0.24 | 73 | 1015.8 |
| 20260903171524 | 81 | 203 | 2.0 | 3.0 | 0.00 | 0.28 | 0.24 | 72 | 1015.8 |
| 20260903171420 | 81 | 233 | 4.0 | 9.0 | 0.00 | 0.28 | 0.24 | 72 | 1015.6 |
| 20260903171335 | 81 | 196 | 4.0 | 11.0 | 0.00 | 0.28 | 0.24 | 73 | 1015.7 |
| 20260903171227 | 81 | 166 | 3.0 | 8.0 | 0.00 | 0.28 | 0.24 | 73 | 1015.8 |
| 20260903171122 | 81 | 237 | 4.0 | 8.0 | 0.00 | 0.28 | 0.24 | 73 | 1015.8 |
| 20260903171018 | 81 | 337 | 3.0 | 7.0 | 0.00 | 0.28 | 0.24 | 72 | 1015.9 |
| 20260903171006 | 81 | 250 | 4.0 | 7.0 | 0.00 | 0.28 | 0.24 | 72 | 1015.6 |
| 20260903170721 | 81 | 253 | 5.0 | 8.0 | 0.00 | 0.28 | 0.24 | 72 | 1015.7 |
| 20260903170616 | 81 | 245 | 2.0 | 3.0 | 0.00 | 0.28 | 0.24 | 71 | 1015.7 |
| 20260903170528 | 81 | 235 | 3.0 | 6.0 | 0.00 | 0.28 | 0.24 | 71 | 1015.7 |
| 20260903170424 | 81 | 239 | 4.0 | 7.0 | 0.00 | 0.28 | 0.24 | 72 | 1015.8 |
| 20260903170319 | 81 | 194 | 1.0 | 2.0 | 0.00 | 0.28 | 0.24 | 73 | 1015.7 |
| 20260903170231 | 81 | 219 | 2.0 | 3.0 | 0.00 | 0.28 | 0.24 | 72 | 1015.9 |
| 20260903170126 | 81 | 259 | 5.0 | 10.0 | 0.00 | 0.28 | 0.24 | 71 | 1015.8 |
| 20260903170022 | 81 | 279 | 4.0 | 10.0 | 0.00 | 0.28 | 0.24 | 72 | 1015.9 |
| 20260903165917 | 81 | 236 | 4.0 | 7.0 | 0.00 | 0.28 | 0.24 | 72 | 1015.7 |
| 20260903165829 | 81 | 252 | 4.0 | 10.0 | 0.00 | 0.28 | 0.24 | 73 | 1016.0 |
| 20260903165724 | 81 | 233 | 2.0 | 7.0 | 0.00 | 0.28 | 0.24 | 73 | 1016.0 |
| 20260903165619 | 81 | 240 | 6.0 | 11.0 | 0.00 | 0.28 | 0.24 | 72 | 1015.9 |
| 20260903165551 | 81 | 226 | 4.0 | 8.0 | 0.00 | 0.28 | 0.24 | 74 | 1015.9 |
| 20260903165426 | 81 | 200 | 2.0 | 7.0 | 0.00 | 0.28 | 0.24 | 75 | 1016.0 |
| 20260903165321 | 81 | 252 | 3.0 | 7.0 | 0.00 | 0.28 | 0.24 | 73 | 1016.0 |
| 20260903165237 | 81 | 264 | 3.0 | 6.0 | 0.00 | 0.28 | 0.24 | 72 | 1015.9 |
| 20260903165129 | 81 | 227 | 2.0 | 3.0 | 0.00 | 0.28 | 0.24 | 72 | 1016.1 |
| 20260903165044 | 81 | 243 | 6.0 | 10.0 | 0.00 | 0.28 | 0.24 | 72 | 1016.0 |
| 20260903164920 | 81 | 251 | 4.0 | 4.0 | 0.00 | 0.28 | 0.24 | 74 | 1016.2 |
| 20260903164815 | 81 | 163 | 2.0 | 4.0 | 0.00 | 0.28 | 0.24 | 75 | 1015.9 |
| 20260903164727 | 81 | 167 | 1.0 | 1.0 | 0.00 | 0.28 | 0.24 | 74 | 1016.0 |
| 20260903164623 | 81 | 208 | 1.0 | 2.0 | 0.00 | 0.28 | 0.24 | 73 | 1016.0 |
| 20260903164558 | 81 | 246 | 1.0 | 1.0 | 0.00 | 0.28 | 0.24 | 73 | 1015.9 |
| 20260903164430 | 81 | 249 | 3.0 | 6.0 | 0.00 | 0.28 | 0.24 | 72 | 1016.1 |
| 20260903164325 | 81 | 248 | 3.0 | 6.0 | 0.00 | 0.28 | 0.24 | 71 | 1016.1 |
| 20260903164221 | 81 | 228 | 5.0 | 8.0 | 0.00 | 0.28 | 0.24 | 71 | 1016.0 |
| 20260903164117 | 81 | 230 | 5.0 | 8.0 | 0.00 | 0.28 | 0.24 | 73 | 1015.8 |
| 20260903164028 | 81 | 265 | 4.0 | 11.0 | 0.00 | 0.28 | 0.24 | 73 | 1016.0 |
| 20260903163923 | 81 | 256 | 2.0 | 3.0 | 0.00 | 0.28 | 0.24 | 72 | 1016.0 |
| 20260903163839 | 81 | 246 | 4.0 | 7.0 | 0.00 | 0.28 | 0.24 | 71 | 1016.0 |
| 20260903163731 | 81 | 254 | 6.0 | 9.0 | 0.00 | 0.28 | 0.24 | 72 | 1015.8 |
| 20260903163626 | 80 | 237 | 3.0 | 4.0 | 0.00 | 0.28 | 0.24 | 74 | 1016.0 |
| 20260903163522 | 80 | 294 | 1.0 | 2.0 | 0.00 | 0.28 | 0.24 | 74 | 1016.0 |
| 20260903163418 | 80 | 241 | 2.0 | 3.0 | 0.00 | 0.28 | 0.24 | 72 | 1016.0 |
| 20260903163329 | 80 | 191 | 2.0 | 6.0 | 0.00 | 0.28 | 0.24 | 72 | 1016.0 |
| 20260903163225 | 80 | 230 | 3.0 | 6.0 | 0.00 | 0.28 | 0.24 | 72 | 1016.1 |
| 20260903163120 | 80 | 268 | 5.0 | 7.0 | 0.00 | 0.28 | 0.24 | 74 | 1016.1 |
| 20260903163016 | 80 | 285 | 3.0 | 8.0 | 0.00 | 0.28 | 0.24 | 73 | 1016.2 |
| 20260903162927 | 80 | 259 | 2.0 | 3.0 | 0.00 | 0.28 | 0.24 | 73 | 1016.1 |
| 20260903162823 | 80 | 232 | 4.0 | 7.0 | 0.00 | 0.28 | 0.24 | 74 | 1016.0 |
| 20260903162738 | 80 | 272 | 4.0 | 8.0 | 0.00 | 0.28 | 0.24 | 73 | 1016.2 |
| 20260903162630 | 80 | 231 | 3.0 | 7.0 | 0.00 | 0.28 | 0.24 | 73 | 1016.2 |
| 20260903162625 | 80 | 250 | 7.0 | 13.0 | 0.00 | 0.28 | 0.24 | 73 | 1016.2 |
| 20260903162441 | 80 | 250 | 4.0 | 8.0 | 0.00 | 0.28 | 0.24 | 73 | 1016.2 |
| 20260903162316 | 80 | 236 | 4.0 | 7.0 | 0.00 | 0.28 | 0.24 | 73 | 1016.3 |
| 20260903162308 | 80 | 228 | 5.0 | 8.0 | 0.00 | 0.28 | 0.24 | 73 | 1016.4 |
| 20260903162143 | 80 | 241 | 6.0 | 8.0 | 0.00 | 0.28 | 0.24 | 73 | 1016.4 |
| 20260903162019 | 80 | 240 | 7.0 | 14.0 | 0.00 | 0.28 | 0.24 | 72 | 1016.2 |
| 20260903161930 | 80 | 258 | 6.0 | 9.0 | 0.00 | 0.28 | 0.24 | 73 | 1016.2 |
| 20260903161826 | 80 | 225 | 3.0 | 8.0 | 0.00 | 0.28 | 0.24 | 74 | 1016.4 |
| 20260903161722 | 79 | 229 | 9.0 | 19.0 | 0.00 | 0.28 | 0.24 | 72 | 1016.4 |
| 20260903161617 | 79 | 255 | 6.0 | 9.0 | 0.00 | 0.28 | 0.24 | 75 | 1016.6 |
| 20260903161529 | 79 | 268 | 6.0 | 13.0 | 0.00 | 0.28 | 0.24 | 76 | 1016.5 |
| 20260903161424 | 79 | 243 | 3.0 | 6.0 | 0.00 | 0.28 | 0.24 | 77 | 1016.5 |
| 20260903161320 | 79 | 213 | 2.0 | 2.0 | 0.00 | 0.28 | 0.24 | 77 | 1016.2 |